Wetterdaten: Freitag, 23.06.2017
Datum Zeit Temp. Aussen Temp. o. S. +5cm Feuchte Auss BlattFeu 1 Luftdruck Regen Sonnenschein Regendauer Solar Windben Empfang
23.06.2017 00:00 20,4 C 19,4 C 18,3 C 74 % 0 lf 1011,6 hPa 0,0 l/m 0 min 0 min 0 W/m 12,6 km/h (3 Bft) 100,00 %
23.06.2017 00:02 20,4 C 19,4 C 18,3 C 74 % 0 lf 1011,7 hPa 0,0 l/m 0 min 0 min 0 W/m 25,1 km/h (4 Bft) 95,12 %
23.06.2017 00:04 20,3 C 19,4 C 18,3 C 74 % 0 lf 1011,6 hPa 0,0 l/m 0 min 0 min 0 W/m 20,9 km/h (4 Bft) 89,36 %
23.06.2017 00:06 20,3 C 19,4 C 18,3 C 75 % 0 lf 1011,8 hPa 0,0 l/m 0 min 0 min 0 W/m 23,0 km/h (4 Bft) 95,74 %
23.06.2017 00:10 20,2 C 19,4 C 18,3 C 75 % 0 lf 1011,7 hPa 0,0 l/m 0 min 0 min 0 W/m 27,2 km/h (4 Bft) 100,00 %
23.06.2017 00:12 20,2 C 19,4 C 18,3 C 75 % 0 lf 1011,8 hPa 0,0 l/m 0 min 0 min 0 W/m 20,9 km/h (4 Bft) 100,00 %
23.06.2017 00:14 20,2 C 19,4 C 18,3 C 75 % 0 lf 1011,7 hPa 0,0 l/m 0 min 0 min 0 W/m 20,9 km/h (4 Bft) 100,00 %
23.06.2017 00:16 20,2 C 19,4 C 18,3 C 75 % 0 lf 1011,8 hPa 0,0 l/m 0 min 0 min 0 W/m 18,8 km/h (3 Bft) 100,00 %
23.06.2017 00:18 20,1 C 19,4 C 18,3 C 76 % 0 lf 1011,7 hPa 0,0 l/m 0 min 0 min 0 W/m 20,9 km/h (4 Bft) 97,87 %
23.06.2017 00:20 20,1 C 19,4 C 18,3 C 76 % 0 lf 1011,9 hPa 0,0 l/m 0 min 0 min 0 W/m 20,9 km/h (4 Bft) 97,83 %
23.06.2017 00:22 20,1 C 19,4 C 18,3 C 76 % 0 lf 1011,9 hPa 0,0 l/m 0 min 0 min 0 W/m 18,8 km/h (3 Bft) 95,74 %
23.06.2017 00:24 20,1 C 19,4 C 18,3 C 76 % 0 lf 1011,9 hPa 0,0 l/m 0 min 0 min 0 W/m 20,9 km/h (4 Bft) 93,62 %
23.06.2017 00:26 20,1 C 19,4 C 18,3 C 76 % 0 lf 1011,9 hPa 0,0 l/m 0 min 0 min 0 W/m 14,6 km/h (3 Bft) 89,36 %
23.06.2017 00:28 20,0 C 19,4 C 18,3 C 76 % 0 lf 1012,0 hPa 0,0 l/m 0 min 0 min 0 W/m 25,1 km/h (4 Bft) 95,74 %
23.06.2017 00:30 20,0 C 19,4 C 18,3 C 76 % 0 lf 1012,0 hPa 0,0 l/m 0 min 0 min 0 W/m 23,0 km/h (4 Bft) 93,62 %
23.06.2017 00:32 19,9 C 19,4 C 18,3 C 76 % 0 lf 1011,9 hPa 0,0 l/m 0 min 0 min 0 W/m 23,0 km/h (4 Bft) 93,48 %
23.06.2017 00:34 19,9 C 19,4 C 18,3 C 77 % 0 lf 1012,0 hPa 0,0 l/m 0 min 0 min 0 W/m 18,8 km/h (3 Bft) 91,49 %
23.06.2017 00:36 19,9 C 19,4 C 18,3 C 77 % 0 lf 1012,0 hPa 0,0 l/m 0 min 0 min 0 W/m 18,8 km/h (3 Bft) 93,62 %
23.06.2017 00:38 19,9 C 19,4 C 18,3 C 77 % 0 lf 1012,0 hPa 0,0 l/m 0 min 0 min 0 W/m 14,6 km/h (3 Bft) 91,49 %
23.06.2017 00:40 19,9 C 19,4 C 18,3 C 77 % 0 lf 1012,0 hPa 0,0 l/m 0 min 0 min 0 W/m 8,4 km/h (2 Bft) 93,62 %
23.06.2017 00:42 19,9 C 19,4 C 18,3 C 77 % 0 lf 1012,0 hPa 0,0 l/m 0 min 0 min 0 W/m 10,5 km/h (2 Bft) 93,62 %
23.06.2017 00:44 19,9 C 19,4 C 18,3 C 77 % 0 lf 1012,0 hPa 0,0 l/m 0 min 0 min 0 W/m 23,0 km/h (4 Bft) 93,48 %
23.06.2017 00:46 19,8 C 19,4 C 18,3 C 77 % 0 lf 1012,2 hPa 0,0 l/m 0 min 0 min 0 W/m 14,6 km/h (3 Bft) 91,49 %
23.06.2017 00:48 19,8 C 19,4 C 18,3 C 77 % 0 lf 1012,1 hPa 0,0 l/m 0 min 0 min 0 W/m 23,0 km/h (4 Bft) 93,62 %
23.06.2017 00:50 19,8 C 19,4 C 18,9 C 78 % 0 lf 1012,1 hPa 0,0 l/m 0 min 0 min 0 W/m 29,3 km/h (5 Bft) 91,49 %
23.06.2017 00:52 19,8 C 19,4 C 18,9 C 78 % 0 lf 1012,1 hPa 0,0 l/m 0 min 0 min 0 W/m 18,8 km/h (3 Bft) 95,74 %
23.06.2017 00:54 19,9 C 19,4 C 18,9 C 78 % 0 lf 1012,2 hPa 0,0 l/m 0 min 0 min 0 W/m 29,3 km/h (5 Bft) 89,36 %
23.06.2017 00:56 19,8 C 19,4 C 18,9 C 78 % 0 lf 1012,2 hPa 0,0 l/m 0 min 0 min 0 W/m 18,8 km/h (3 Bft) 91,30 %
23.06.2017 00:58 19,9 C 19,4 C 18,9 C 78 % 0 lf 1012,2 hPa 0,0 l/m 0 min 0 min 0 W/m 18,8 km/h (3 Bft) 93,62 %
23.06.2017 01:00 19,9 C 19,4 C 18,9 C 78 % 0 lf 1012,2 hPa 0,0 l/m 0 min 0 min 0 W/m 20,9 km/h (4 Bft) 95,74 %
23.06.2017 01:02 19,9 C 20,0 C 18,9 C 78 % 0 lf 1012,2 hPa 0,0 l/m 0 min 0 min 0 W/m 16,7 km/h (3 Bft) 95,74 %
23.06.2017 01:04 19,9 C 20,0 C 18,9 C 78 % 0 lf 1012,2 hPa 0,0 l/m 0 min 0 min 0 W/m 20,9 km/h (4 Bft) 95,74 %
23.06.2017 01:06 19,9 C 20,0 C 18,9 C 78 % 0 lf 1012,2 hPa 0,0 l/m 0 min 0 min 0 W/m 25,1 km/h (4 Bft) 93,02 %
23.06.2017 01:08 19,9 C 20,0 C 18,9 C 78 % 0 lf 1012,2 hPa 0,0 l/m 0 min 0 min 0 W/m 23,0 km/h (4 Bft) 95,74 %
23.06.2017 01:10 19,9 C 20,0 C 18,9 C 78 % 0 lf 1012,2 hPa 0,0 l/m 0 min 0 min 0 W/m 27,2 km/h (4 Bft) 95,74 %
23.06.2017 01:12 19,9 C 20,0 C 18,9 C 78 % 0 lf 1012,2 hPa 0,0 l/m 0 min 0 min 0 W/m 23,0 km/h (4 Bft) 97,83 %
23.06.2017 01:14 19,9 C 20,0 C 18,9 C 79 % 0 lf 1012,2 hPa 0,0 l/m 0 min 0 min 0 W/m 20,9 km/h (4 Bft) 97,87 %
23.06.2017 01:16 19,9 C 20,0 C 18,9 C 79 % 0 lf 1012,3 hPa 0,0 l/m 0 min 0 min 0 W/m 18,8 km/h (3 Bft) 97,87 %
23.06.2017 01:18 19,9 C 20,0 C 18,9 C 79 % 0 lf 1012,2 hPa 0,0 l/m 0 min 0 min 0 W/m 14,6 km/h (3 Bft) 100,00 %
23.06.2017 01:20 19,9 C 20,0 C 18,9 C 79 % 0 lf 1012,3 hPa 0,0 l/m 0 min 0 min 0 W/m 16,7 km/h (3 Bft) 97,87 %
23.06.2017 01:22 19,9 C 20,0 C 18,9 C 79 % 0 lf 1012,3 hPa 0,0 l/m 0 min 0 min 0 W/m 23,0 km/h (4 Bft) 97,87 %
23.06.2017 01:24 19,9 C 20,0 C 18,9 C 79 % 0 lf 1012,3 hPa 0,0 l/m 0 min 0 min 0 W/m 23,0 km/h (4 Bft) 100,00 %
23.06.2017 01:26 19,9 C 20,0 C 18,9 C 79 % 0 lf 1012,3 hPa 0,0 l/m 0 min 0 min 0 W/m 18,8 km/h (3 Bft) 97,87 %
23.06.2017 01:28 19,9 C 20,0 C 18,9 C 79 % 0 lf 1012,3 hPa 0,0 l/m 0 min 0 min 0 W/m 20,9 km/h (4 Bft) 97,87 %
23.06.2017 01:30 19,9 C 20,0 C 18,9 C 79 % 0 lf 1012,3 hPa 0,0 l/m 0 min 0 min 0 W/m 16,7 km/h (3 Bft) 100,00 %
23.06.2017 01:32 19,9 C 19,4 C 18,9 C 79 % 0 lf 1012,4 hPa 0,0 l/m 0 min 0 min 0 W/m 14,6 km/h (3 Bft) 97,87 %
23.06.2017 01:34 19,9 C 19,4 C 18,9 C 79 % 0 lf 1012,3 hPa 0,0 l/m 0 min 0 min 0 W/m 14,6 km/h (3 Bft) 100,00 %
23.06.2017 01:36 19,9 C 19,4 C 18,9 C 79 % 0 lf 1012,4 hPa 0,0 l/m 0 min 0 min 0 W/m 27,2 km/h (4 Bft) 100,00 %
23.06.2017 01:38 19,9 C 19,4 C 18,9 C 79 % 0 lf 1012,3 hPa 0,0 l/m 0 min 0 min 0 W/m 12,6 km/h (3 Bft) 100,00 %
23.06.2017 01:40 19,9 C 19,4 C 18,9 C 79 % 0 lf 1012,3 hPa 0,0 l/m 0 min 0 min 0 W/m 16,7 km/h (3 Bft) 100,00 %
23.06.2017 01:42 19,9 C 19,4 C 18,9 C 79 % 0 lf 1012,4 hPa 0,0 l/m 0 min 0 min 0 W/m 14,6 km/h (3 Bft) 95,65 %
23.06.2017 01:44 19,9 C 19,4 C 18,9 C 79 % 0 lf 1012,4 hPa 0,0 l/m 0 min 0 min 0 W/m 18,8 km/h (3 Bft) 100,00 %
23.06.2017 01:46 19,9 C 19,4 C 18,9 C 79 % 0 lf 1012,4 hPa 0,0 l/m 0 min 0 min 0 W/m 10,5 km/h (2 Bft) 100,00 %
23.06.2017 01:48 19,9 C 19,4 C 18,9 C 79 % 0 lf 1012,3 hPa 0,0 l/m 0 min 0 min 0 W/m 18,8 km/h (3 Bft) 100,00 %
23.06.2017 01:50 19,8 C 19,4 C 18,9 C 79 % 0 lf 1012,4 hPa 0,0 l/m 0 min 0 min 0 W/m 23,0 km/h (4 Bft) 100,00 %
23.06.2017 01:52 19,8 C 19,4 C 18,9 C 79 % 0 lf 1012,4 hPa 0,0 l/m 0 min 0 min 0 W/m 20,9 km/h (4 Bft) 100,00 %
23.06.2017 01:54 19,8 C 19,4 C 18,9 C 79 % 0 lf 1012,4 hPa 0,0 l/m 0 min 0 min 0 W/m 25,1 km/h (4 Bft) 100,00 %
23.06.2017 01:56 19,8 C 19,4 C 18,9 C 79 % 0 lf 1012,4 hPa 0,0 l/m 0 min 0 min 0 W/m 29,3 km/h (5 Bft) 97,87 %
23.06.2017 01:58 19,8 C 19,4 C 18,9 C 78 % 0 lf 1012,4 hPa 0,0 l/m 0 min 0 min 0 W/m 14,6 km/h (3 Bft) 95,74 %
23.06.2017 02:00 19,8 C 19,4 C 18,9 C 78 % 0 lf 1012,3 hPa 0,0 l/m 0 min 0 min 0 W/m 12,6 km/h (3 Bft) 100,00 %
23.06.2017 02:02 19,8 C 19,4 C 18,9 C 78 % 0 lf 1012,4 hPa 0,0 l/m 0 min 0 min 0 W/m 14,6 km/h (3 Bft) 97,87 %
23.06.2017 02:04 19,8 C 19,4 C 18,9 C 79 % 0 lf 1012,4 hPa 0,0 l/m 0 min 0 min 0 W/m 16,7 km/h (3 Bft) 100,00 %
23.06.2017 02:06 19,8 C 19,4 C 18,9 C 79 % 0 lf 1012,4 hPa 0,0 l/m 0 min 0 min 0 W/m 20,9 km/h (4 Bft) 100,00 %
23.06.2017 02:08 19,8 C 19,4 C 18,9 C 78 % 0 lf 1012,4 hPa 0,0 l/m 0 min 0 min 0 W/m 12,6 km/h (3 Bft) 100,00 %
23.06.2017 02:10 19,8 C 19,4 C 18,9 C 79 % 0 lf 1012,4 hPa 0,0 l/m 0 min 0 min 0 W/m 12,6 km/h (3 Bft) 100,00 %
23.06.2017 02:12 19,8 C 19,4 C 18,9 C 79 % 0 lf 1012,4 hPa 0,0 l/m 0 min 0 min 0 W/m 14,6 km/h (3 Bft) 97,87 %
23.06.2017 02:14 19,8 C 19,4 C 18,9 C 79 % 0 lf 1012,5 hPa 0,0 l/m 0 min 0 min 0 W/m 12,6 km/h (3 Bft) 100,00 %
23.06.2017 02:16 19,8 C 19,4 C 18,9 C 79 % 0 lf 1012,5 hPa 0,0 l/m 0 min 0 min 0 W/m 14,6 km/h (3 Bft) 100,00 %
23.06.2017 02:18 19,8 C 19,4 C 18,9 C 79 % 0 lf 1012,5 hPa 0,0 l/m 0 min 0 min 0 W/m 12,6 km/h (3 Bft) 97,83 %
23.06.2017 02:20 19,8 C 19,4 C 18,9 C 79 % 0 lf 1012,5 hPa 0,0 l/m 0 min 0 min 0 W/m 16,7 km/h (3 Bft) 97,87 %
23.06.2017 02:22 19,8 C 19,4 C 18,9 C 79 % 0 lf 1012,5 hPa 0,0 l/m 0 min 0 min 0 W/m 8,4 km/h (2 Bft) 93,62 %
23.06.2017 02:24 19,8 C 19,4 C 18,9 C 79 % 0 lf 1012,4 hPa 0,0 l/m 0 min 0 min 0 W/m 12,6 km/h (3 Bft) 95,74 %
23.06.2017 02:26 19,8 C 19,4 C 18,9 C 79 % 0 lf 1012,4 hPa 0,0 l/m 0 min 0 min 0 W/m 10,5 km/h (2 Bft) 95,74 %
23.06.2017 02:28 19,8 C 19,4 C 18,9 C 80 % 0 lf 1012,5 hPa 0,0 l/m 0 min 0 min 0 W/m 8,4 km/h (2 Bft) 95,74 %
23.06.2017 02:30 19,8 C 19,4 C 18,9 C 80 % 0 lf 1012,5 hPa 0,0 l/m 0 min 0 min 0 W/m 10,5 km/h (2 Bft) 93,48 %
23.06.2017 02:32 19,8 C 19,4 C 18,9 C 80 % 0 lf 1012,4 hPa 0,0 l/m 0 min 0 min 0 W/m 8,4 km/h (2 Bft) 95,74 %
23.06.2017 02:34 19,8 C 19,4 C 18,9 C 80 % 0 lf 1012,5 hPa 0,0 l/m 0 min 0 min 0 W/m 10,5 km/h (2 Bft) 95,74 %
23.06.2017 02:36 19,8 C 19,4 C 18,9 C 80 % 0 lf 1012,4 hPa 0,0 l/m 0 min 0 min 0 W/m 12,6 km/h (3 Bft) 95,74 %
23.06.2017 02:38 19,8 C 19,4 C 18,9 C 80 % 0 lf 1012,4 hPa 0,0 l/m 0 min 0 min 0 W/m 10,5 km/h (2 Bft) 95,74 %
23.06.2017 02:40 19,8 C 19,4 C 18,3 C 80 % 0 lf 1012,4 hPa 0,0 l/m 0 min 0 min 0 W/m 8,4 km/h (2 Bft) 95,74 %
23.06.2017 02:42 19,8 C 19,4 C 18,9 C 80 % 0 lf 1012,4 hPa 0,0 l/m 0 min 0 min 0 W/m 12,6 km/h (3 Bft) 93,48 %
23.06.2017 02:44 19,8 C 19,4 C 18,3 C 80 % 0 lf 1012,5 hPa 0,0 l/m 0 min 0 min 0 W/m 10,5 km/h (2 Bft) 93,62 %
23.06.2017 02:46 19,8 C 19,4 C 18,3 C 80 % 0 lf 1012,5 hPa 0,0 l/m 0 min 0 min 0 W/m 10,5 km/h (2 Bft) 95,74 %
23.06.2017 02:48 19,8 C 19,4 C 18,3 C 80 % 0 lf 1012,4 hPa 0,0 l/m 0 min 0 min 0 W/m 16,7 km/h (3 Bft) 95,74 %
23.06.2017 02:50 19,7 C 19,4 C 18,3 C 80 % 0 lf 1012,4 hPa 0,0 l/m 0 min 0 min 0 W/m 14,6 km/h (3 Bft) 91,49 %
23.06.2017 02:52 19,7 C 19,4 C 18,3 C 80 % 0 lf 1012,4 hPa 0,0 l/m 0 min 0 min 0 W/m 10,5 km/h (2 Bft) 95,65 %
23.06.2017 02:54 19,7 C 19,4 C 18,3 C 80 % 0 lf 1012,4 hPa 0,0 l/m 0 min 0 min 0 W/m 10,5 km/h (2 Bft) 95,74 %
23.06.2017 02:56 19,7 C 19,4 C 18,3 C 80 % 0 lf 1012,5 hPa 0,0 l/m 0 min 0 min 0 W/m 10,5 km/h (2 Bft) 95,74 %
23.06.2017 02:58 19,7 C 19,4 C 18,3 C 80 % 0 lf 1012,5 hPa 0,0 l/m 0 min 0 min 0 W/m 10,5 km/h (2 Bft) 95,74 %
23.06.2017 03:00 19,7 C 19,4 C 18,3 C 80 % 0 lf 1012,5 hPa 0,0 l/m 0 min 0 min 0 W/m 6,3 km/h (2 Bft) 97,87 %
23.06.2017 03:02 19,7 C 19,4 C 18,3 C 80 % 0 lf 1012,5 hPa 0,0 l/m 0 min 0 min 0 W/m 10,5 km/h (2 Bft) 95,74 %
23.06.2017 03:04 19,7 C 19,4 C 18,3 C 80 % 0 lf 1012,6 hPa 0,0 l/m 0 min 0 min 0 W/m 10,5 km/h (2 Bft) 97,87 %
23.06.2017 03:06 19,7 C 19,4 C 18,3 C 80 % 0 lf 1012,5 hPa 0,0 l/m 0 min 0 min 0 W/m 10,5 km/h (2 Bft) 97,83 %
23.06.2017 03:08 19,6 C 19,4 C 18,3 C 81 % 0 lf 1012,5 hPa 0,0 l/m 0 min 0 min 0 W/m 16,7 km/h (3 Bft) 93,62 %
23.06.2017 03:10 19,6 C 19,4 C 18,3 C 81 % 0 lf 1012,5 hPa 0,0 l/m 0 min 0 min 0 W/m 18,8 km/h (3 Bft) 93,62 %
23.06.2017 03:12 19,6 C 19,4 C 18,3 C 81 % 0 lf 1012,5 hPa 0,0 l/m 0 min 0 min 0 W/m 14,6 km/h (3 Bft) 95,74 %
23.06.2017 03:14 19,6 C 19,4 C 18,3 C 81 % 0 lf 1012,4 hPa 0,0 l/m 0 min 0 min 0 W/m 10,5 km/h (2 Bft) 93,62 %
23.06.2017 03:16 19,6 C 19,4 C 18,3 C 81 % 0 lf 1012,4 hPa 0,0 l/m 0 min 0 min 0 W/m 10,5 km/h (2 Bft) 95,65 %
23.06.2017 03:18 19,6 C 19,4 C 18,3 C 81 % 0 lf 1012,5 hPa 0,0 l/m 0 min 0 min 0 W/m 14,6 km/h (3 Bft) 97,87 %
23.06.2017 03:20 19,6 C 19,4 C 18,3 C 81 % 0 lf 1012,5 hPa 0,0 l/m 0 min 0 min 0 W/m 12,6 km/h (3 Bft) 97,87 %
23.06.2017 03:22 19,6 C 19,4 C 18,3 C 81 % 0 lf 1012,5 hPa 0,0 l/m 0 min 0 min 0 W/m 14,6 km/h (3 Bft) 97,87 %
23.06.2017 03:24 19,6 C 18,9 C 18,3 C 81 % 0 lf 1012,4 hPa 0,0 l/m 0 min 0 min 0 W/m 12,6 km/h (3 Bft) 95,74 %
23.06.2017 03:26 19,5 C 18,9 C 18,3 C 81 % 0 lf 1012,3 hPa 0,0 l/m 0 min 0 min 0 W/m 8,4 km/h (2 Bft) 93,62 %
23.06.2017 03:28 19,5 C 18,9 C 18,3 C 81 % 0 lf 1012,3 hPa 0,0 l/m 0 min 0 min 0 W/m 8,4 km/h (2 Bft) 95,65 %
23.06.2017 03:30 19,5 C 19,4 C 18,3 C 81 % 0 lf 1012,4 hPa 0,0 l/m 0 min 0 min 0 W/m 16,7 km/h (3 Bft) 93,62 %
23.06.2017 03:32 19,5 C 19,4 C 18,3 C 81 % 0 lf 1012,4 hPa 0,0 l/m 0 min 0 min 0 W/m 10,5 km/h (2 Bft) 93,62 %
23.06.2017 03:34 19,5 C 19,4 C 18,3 C 81 % 0 lf 1012,5 hPa 0,0 l/m 0 min 0 min 0 W/m 6,3 km/h (2 Bft) 95,74 %
23.06.2017 03:36 19,5 C 19,4 C 18,3 C 81 % 0 lf 1012,5 hPa 0,0 l/m 0 min 0 min 0 W/m 10,5 km/h (2 Bft) 95,65 %
23.06.2017 03:38 19,5 C 19,4 C 18,3 C 81 % 0 lf 1012,5 hPa 0,0 l/m 0 min 0 min 0 W/m 8,4 km/h (2 Bft) 95,74 %
23.06.2017 03:40 19,5 C 19,4 C 18,3 C 81 % 0 lf 1012,4 hPa 0,0 l/m 0 min 0 min 0 W/m 10,5 km/h (2 Bft) 95,65 %
23.06.2017 03:42 19,4 C 19,4 C 18,3 C 81 % 0 lf 1012,4 hPa 0,0 l/m 0 min 0 min 0 W/m 8,4 km/h (2 Bft) 93,62 %
23.06.2017 03:44 19,4 C 19,4 C 18,3 C 81 % 0 lf 1012,4 hPa 0,0 l/m 0 min 0 min 0 W/m 10,5 km/h (2 Bft) 89,36 %
23.06.2017 03:46 19,4 C 19,4 C 18,3 C 81 % 0 lf 1012,3 hPa 0,0 l/m 0 min 0 min 0 W/m 8,4 km/h (2 Bft) 95,74 %
23.06.2017 03:48 19,4 C 19,4 C 18,3 C 81 % 0 lf 1012,3 hPa 0,0 l/m 0 min 0 min 0 W/m 8,4 km/h (2 Bft) 91,49 %
23.06.2017 03:50 19,4 C 19,4 C 18,3 C 81 % 0 lf 1012,4 hPa 0,0 l/m 0 min 0 min 0 W/m 8,4 km/h (2 Bft) 93,62 %
23.06.2017 03:52 19,4 C 19,4 C 18,3 C 81 % 0 lf 1012,3 hPa 0,0 l/m 0 min 0 min 0 W/m 16,7 km/h (3 Bft) 93,48 %
23.06.2017 03:54 19,4 C 19,4 C 18,3 C 81 % 0 lf 1012,4 hPa 0,0 l/m 0 min 0 min 0 W/m 10,5 km/h (2 Bft) 95,74 %
23.06.2017 03:56 19,4 C 19,4 C 18,3 C 81 % 0 lf 1012,4 hPa 0,0 l/m 0 min 0 min 0 W/m 8,4 km/h (2 Bft) 97,87 %
23.06.2017 03:58 19,4 C 19,4 C 18,3 C 81 % 0 lf 1012,4 hPa 0,0 l/m 0 min 0 min 0 W/m 8,4 km/h (2 Bft) 95,74 %
23.06.2017 04:00 19,4 C 19,4 C 18,3 C 81 % 0 lf 1012,3 hPa 0,0 l/m 0 min 0 min 0 W/m 10,5 km/h (2 Bft) 97,87 %
23.06.2017 04:02 19,4 C 19,4 C 18,3 C 81 % 0 lf 1012,3 hPa 0,0 l/m 0 min 0 min 0 W/m 12,6 km/h (3 Bft) 100,00 %
23.06.2017 04:04 19,4 C 19,4 C 18,3 C 81 % 0 lf 1012,3 hPa 0,0 l/m 0 min 0 min 0 W/m 12,6 km/h (3 Bft) 97,83 %
23.06.2017 04:06 19,4 C 19,4 C 18,3 C 81 % 0 lf 1012,4 hPa 0,0 l/m 0 min 0 min 0 W/m 16,7 km/h (3 Bft) 93,62 %
23.06.2017 04:08 19,4 C 19,4 C 18,3 C 81 % 0 lf 1012,4 hPa 0,0 l/m 0 min 0 min 0 W/m 12,6 km/h (3 Bft) 97,87 %
23.06.2017 04:10 19,4 C 19,4 C 18,3 C 82 % 0 lf 1012,4 hPa 0,0 l/m 0 min 0 min 0 W/m 12,6 km/h (3 Bft) 97,87 %
23.06.2017 04:12 19,4 C 19,4 C 18,3 C 82 % 0 lf 1012,4 hPa 0,0 l/m 0 min 0 min 0 W/m 8,4 km/h (2 Bft) 95,74 %
23.06.2017 04:14 19,4 C 19,4 C 18,3 C 82 % 0 lf 1012,4 hPa 0,0 l/m 0 min 0 min 0 W/m 8,4 km/h (2 Bft) 95,74 %
23.06.2017 04:16 19,4 C 19,4 C 18,3 C 82 % 0 lf 1012,3 hPa 0,0 l/m 0 min 0 min 0 W/m 10,5 km/h (2 Bft) 97,83 %
23.06.2017 04:18 19,4 C 19,4 C 18,3 C 82 % 0 lf 1012,3 hPa 0,0 l/m 0 min 0 min 0 W/m 14,6 km/h (3 Bft) 100,00 %
23.06.2017 04:20 19,4 C 19,4 C 18,3 C 82 % 0 lf 1012,3 hPa 0,0 l/m 0 min 0 min 0 W/m 4,2 km/h (1 Bft) 97,87 %
23.06.2017 04:22 19,4 C 19,4 C 18,3 C 82 % 0 lf 1012,2 hPa 0,0 l/m 0 min 0 min 0 W/m 12,6 km/h (3 Bft) 100,00 %
23.06.2017 04:24 19,4 C 19,4 C 18,3 C 82 % 0 lf 1012,3 hPa 0,0 l/m 0 min 0 min 0 W/m 10,5 km/h (2 Bft) 97,87 %
23.06.2017 04:26 19,4 C 19,4 C 18,3 C 82 % 0 lf 1012,2 hPa 0,0 l/m 0 min 0 min 0 W/m 12,6 km/h (3 Bft) 95,65 %
23.06.2017 04:28 19,4 C 19,4 C 18,3 C 82 % 0 lf 1012,3 hPa 0,0 l/m 0 min 0 min 0 W/m 14,6 km/h (3 Bft) 93,62 %
23.06.2017 04:30 19,4 C 19,4 C 18,3 C 82 % 0 lf 1012,3 hPa 0,0 l/m 0 min 0 min 0 W/m 12,6 km/h (3 Bft) 95,74 %
23.06.2017 04:32 19,4 C 19,4 C 18,3 C 82 % 0 lf 1012,3 hPa 0,0 l/m 0 min 0 min 0 W/m 12,6 km/h (3 Bft) 97,87 %
23.06.2017 04:34 19,4 C 19,4 C 18,3 C 82 % 0 lf 1012,3 hPa 0,0 l/m 0 min 0 min 0 W/m 16,7 km/h (3 Bft) 97,87 %
23.06.2017 04:36 19,4 C 19,4 C 18,3 C 82 % 0 lf 1012,3 hPa 0,0 l/m 0 min 0 min 0 W/m 12,6 km/h (3 Bft) 97,87 %
23.06.2017 04:38 19,4 C 19,4 C 18,3 C 82 % 0 lf 1012,2 hPa 0,0 l/m 0 min 0 min 0 W/m 18,8 km/h (3 Bft) 97,83 %
23.06.2017 04:40 19,4 C 19,4 C 18,3 C 82 % 0 lf 1012,2 hPa 0,0 l/m 0 min 0 min 0 W/m 14,6 km/h (3 Bft) 95,74 %
23.06.2017 04:42 19,4 C 19,4 C 18,3 C 82 % 0 lf 1012,2 hPa 0,0 l/m 0 min 0 min 0 W/m 16,7 km/h (3 Bft) 97,87 %
23.06.2017 04:44 19,4 C 19,4 C 18,3 C 82 % 0 lf 1012,2 hPa 0,0 l/m 0 min 0 min 0 W/m 14,6 km/h (3 Bft) 97,87 %
23.06.2017 04:46 19,4 C 19,4 C 18,3 C 82 % 0 lf 1012,3 hPa 0,0 l/m 0 min 0 min 0 W/m 14,6 km/h (3 Bft) 97,87 %
23.06.2017 04:48 19,4 C 19,4 C 18,3 C 82 % 0 lf 1012,3 hPa 0,0 l/m 0 min 0 min 0 W/m 14,6 km/h (3 Bft) 97,87 %
23.06.2017 04:50 19,4 C 19,4 C 18,3 C 82 % 0 lf 1012,3 hPa 0,0 l/m 0 min 0 min 0 W/m 16,7 km/h (3 Bft) 97,83 %
23.06.2017 04:52 19,3 C 19,4 C 18,3 C 82 % 0 lf 1012,3 hPa 0,0 l/m 0 min 0 min 0 W/m 10,5 km/h (2 Bft) 95,74 %
23.06.2017 04:54 19,4 C 19,4 C 18,3 C 82 % 0 lf 1012,3 hPa 0,0 l/m 0 min 0 min 0 W/m 14,6 km/h (3 Bft) 95,74 %
23.06.2017 04:56 19,4 C 19,4 C 18,3 C 82 % 0 lf 1012,2 hPa 0,0 l/m 0 min 0 min 0 W/m 12,6 km/h (3 Bft) 100,00 %
23.06.2017 04:58 19,4 C 19,4 C 18,3 C 82 % 0 lf 1012,2 hPa 0,0 l/m 0 min 0 min 0 W/m 12,6 km/h (3 Bft) 100,00 %
23.06.2017 05:00 19,3 C 19,4 C 18,3 C 82 % 0 lf 1012,2 hPa 0,0 l/m 0 min 0 min 10 W/m 6,3 km/h (2 Bft) 100,00 %
23.06.2017 05:02 19,3 C 19,4 C 18,3 C 82 % 0 lf 1012,3 hPa 0,0 l/m 0 min 0 min 10 W/m 10,5 km/h (2 Bft) 95,65 %
23.06.2017 05:04 19,3 C 19,4 C 18,3 C 82 % 0 lf 1012,3 hPa 0,0 l/m 0 min 0 min 10 W/m 10,5 km/h (2 Bft) 100,00 %
23.06.2017 05:06 19,3 C 19,4 C 18,3 C 82 % 0 lf 1012,2 hPa 0,0 l/m 0 min 0 min 10 W/m 10,5 km/h (2 Bft) 100,00 %
23.06.2017 05:08 19,4 C 19,4 C 18,3 C 82 % 0 lf 1012,3 hPa 0,0 l/m 0 min 0 min 10 W/m 12,6 km/h (3 Bft) 93,62 %
23.06.2017 05:10 19,3 C 19,4 C 18,3 C 82 % 0 lf 1012,3 hPa 0,0 l/m 0 min 0 min 10 W/m 8,4 km/h (2 Bft) 100,00 %
23.06.2017 05:12 19,4 C 19,4 C 18,3 C 82 % 0 lf 1012,2 hPa 0,0 l/m 0 min 0 min 10 W/m 8,4 km/h (2 Bft) 100,00 %
23.06.2017 05:14 19,3 C 19,4 C 18,3 C 82 % 0 lf 1012,3 hPa 0,0 l/m 0 min 0 min 10 W/m 8,4 km/h (2 Bft) 100,00 %
23.06.2017 05:16 19,4 C 19,4 C 18,3 C 82 % 0 lf 1012,2 hPa 0,0 l/m 0 min 0 min 10 W/m 10,5 km/h (2 Bft) 97,87 %
23.06.2017 05:18 19,4 C 18,9 C 18,3 C 82 % 0 lf 1012,2 hPa 0,0 l/m 0 min 0 min 10 W/m 10,5 km/h (2 Bft) 100,00 %
23.06.2017 05:20 19,4 C 18,9 C 18,3 C 82 % 0 lf 1012,2 hPa 0,0 l/m 0 min 0 min 10 W/m 8,4 km/h (2 Bft) 95,74 %
23.06.2017 05:22 19,4 C 18,9 C 18,3 C 82 % 0 lf 1012,3 hPa 0,0 l/m 0 min 0 min 10 W/m 6,3 km/h (2 Bft) 100,00 %
23.06.2017 05:24 19,3 C 18,9 C 18,3 C 82 % 0 lf 1012,2 hPa 0,0 l/m 0 min 0 min 10 W/m 6,3 km/h (2 Bft) 100,00 %
23.06.2017 05:26 19,3 C 18,9 C 18,3 C 82 % 0 lf 1012,2 hPa 0,0 l/m 0 min 0 min 15 W/m 8,4 km/h (2 Bft) 100,00 %
23.06.2017 05:28 19,4 C 18,9 C 18,3 C 82 % 0 lf 1012,2 hPa 0,0 l/m 0 min 0 min 15 W/m 8,4 km/h (2 Bft) 100,00 %
23.06.2017 05:30 19,3 C 18,9 C 18,3 C 82 % 0 lf 1012,3 hPa 0,0 l/m 0 min 0 min 15 W/m 14,6 km/h (3 Bft) 100,00 %
23.06.2017 05:32 19,3 C 18,9 C 18,3 C 82 % 0 lf 1012,3 hPa 0,0 l/m 0 min 0 min 15 W/m 10,5 km/h (2 Bft) 97,87 %
23.06.2017 05:34 19,3 C 18,9 C 18,3 C 82 % 0 lf 1012,3 hPa 0,0 l/m 0 min 0 min 16 W/m 12,6 km/h (3 Bft) 100,00 %
23.06.2017 05:36 19,3 C 18,9 C 18,3 C 82 % 0 lf 1012,2 hPa 0,0 l/m 0 min 0 min 17 W/m 8,4 km/h (2 Bft) 97,83 %
23.06.2017 05:38 19,3 C 18,9 C 18,3 C 82 % 0 lf 1012,2 hPa 0,0 l/m 0 min 0 min 18 W/m 10,5 km/h (2 Bft) 97,87 %
23.06.2017 05:40 19,3 C 18,9 C 18,3 C 82 % 0 lf 1012,3 hPa 0,0 l/m 0 min 0 min 19 W/m 6,3 km/h (2 Bft) 100,00 %
23.06.2017 05:42 19,3 C 18,9 C 18,3 C 82 % 0 lf 1012,2 hPa 0,0 l/m 0 min 0 min 19 W/m 4,2 km/h (1 Bft) 100,00 %
23.06.2017 05:44 19,3 C 18,9 C 18,3 C 82 % 0 lf 1012,2 hPa 0,0 l/m 0 min 0 min 19 W/m 8,4 km/h (2 Bft) 97,87 %
23.06.2017 05:46 19,3 C 18,9 C 18,3 C 82 % 0 lf 1012,3 hPa 0,0 l/m 0 min 0 min 19 W/m 12,6 km/h (3 Bft) 100,00 %
23.06.2017 05:48 19,3 C 18,9 C 18,3 C 82 % 0 lf 1012,4 hPa 0,0 l/m 0 min 0 min 22 W/m 12,6 km/h (3 Bft) 100,00 %
23.06.2017 05:50 19,3 C 18,9 C 18,3 C 82 % 0 lf 1012,3 hPa 0,0 l/m 0 min 0 min 22 W/m 14,6 km/h (3 Bft) 97,83 %
23.06.2017 05:52 19,3 C 18,9 C 18,3 C 82 % 0 lf 1012,3 hPa 0,0 l/m 0 min 0 min 22 W/m 18,8 km/h (3 Bft) 95,74 %
23.06.2017 05:54 19,3 C 18,9 C 18,3 C 82 % 0 lf 1012,3 hPa 0,0 l/m 0 min 0 min 22 W/m 12,6 km/h (3 Bft) 95,74 %
23.06.2017 05:56 19,2 C 18,9 C 18,3 C 82 % 0 lf 1012,4 hPa 0,0 l/m 0 min 0 min 23 W/m 10,5 km/h (2 Bft) 95,74 %
23.06.2017 05:58 19,2 C 18,9 C 18,3 C 82 % 0 lf 1012,4 hPa 0,0 l/m 0 min 0 min 15 W/m 10,5 km/h (2 Bft) 95,74 %
23.06.2017 06:00 19,2 C 18,9 C 18,3 C 82 % 0 lf 1012,4 hPa 0,0 l/m 0 min 0 min 17 W/m 12,6 km/h (3 Bft) 95,74 %
23.06.2017 06:02 19,2 C 18,9 C 18,3 C 82 % 0 lf 1012,5 hPa 0,0 l/m 0 min 0 min 21 W/m 10,5 km/h (2 Bft) 93,48 %
23.06.2017 06:04 19,2 C 18,9 C 18,3 C 82 % 0 lf 1012,5 hPa 0,0 l/m 0 min 0 min 26 W/m 12,6 km/h (3 Bft) 95,74 %
23.06.2017 06:06 19,2 C 19,4 C 18,3 C 82 % 0 lf 1012,5 hPa 0,0 l/m 0 min 0 min 28 W/m 8,4 km/h (2 Bft) 91,49 %
23.06.2017 06:08 19,2 C 19,4 C 18,3 C 82 % 0 lf 1012,5 hPa 0,0 l/m 0 min 0 min 27 W/m 10,5 km/h (2 Bft) 97,14 %
23.06.2017 06:10 19,2 C 19,4 C 18,3 C 82 % 0 lf 1012,5 hPa 0,0 l/m 0 min 0 min 27 W/m 12,6 km/h (3 Bft) 95,74 %
23.06.2017 06:12 19,2 C 19,4 C 18,3 C 82 % 0 lf 1012,6 hPa 0,0 l/m 0 min 0 min 28 W/m 16,7 km/h (3 Bft) 91,49 %
23.06.2017 06:14 19,2 C 18,9 C 18,3 C 82 % 0 lf 1012,6 hPa 0,0 l/m 0 min 0 min 28 W/m 16,7 km/h (3 Bft) 95,74 %
23.06.2017 06:16 19,2 C 19,4 C 18,3 C 82 % 0 lf 1012,6 hPa 0,0 l/m 0 min 0 min 27 W/m 16,7 km/h (3 Bft) 91,30 %
23.06.2017 06:18 19,2 C 18,9 C 18,3 C 82 % 0 lf 1012,6 hPa 0,0 l/m 0 min 0 min 22 W/m 14,6 km/h (3 Bft) 93,62 %
23.06.2017 06:20 19,2 C 18,9 C 18,3 C 82 % 0 lf 1012,7 hPa 0,0 l/m 0 min 0 min 20 W/m 18,8 km/h (3 Bft) 94,92 %
23.06.2017 06:22 19,2 C 18,9 C 18,3 C 82 % 0 lf 1012,7 hPa 0,0 l/m 0 min 0 min 21 W/m 16,7 km/h (3 Bft) 91,43 %
23.06.2017 06:24 19,1 C 18,9 C 18,3 C 82 % 0 lf 1012,7 hPa 0,0 l/m 0 min 0 min 22 W/m 14,6 km/h (3 Bft) 93,62 %
23.06.2017 06:26 19,1 C 18,9 C 18,3 C 82 % 0 lf 1012,7 hPa 0,0 l/m 0 min 0 min 23 W/m 20,9 km/h (4 Bft) 93,48 %
23.06.2017 06:28 19,1 C 18,9 C 18,3 C 82 % 0 lf 1012,8 hPa 0,0 l/m 0 min 0 min 27 W/m 16,7 km/h (3 Bft) 95,74 %
23.06.2017 06:30 19,1 C 18,9 C 18,3 C 82 % 0 lf 1012,8 hPa 0,0 l/m 0 min 0 min 32 W/m 14,6 km/h (3 Bft) 91,49 %
23.06.2017 06:32 19,1 C 18,9 C 18,3 C 82 % 0 lf 1012,8 hPa 0,0 l/m 0 min 0 min 34 W/m 12,6 km/h (3 Bft) 86,79 %
23.06.2017 06:34 19,1 C 18,9 C 18,3 C 82 % 0 lf 1012,8 hPa 0,0 l/m 0 min 0 min 39 W/m 14,6 km/h (3 Bft) 89,36 %
23.06.2017 06:36 19,1 C 18,9 C 18,3 C 82 % 0 lf 1012,8 hPa 0,0 l/m 0 min 0 min 36 W/m 25,1 km/h (4 Bft) 87,23 %
23.06.2017 06:38 19,1 C 18,9 C 18,3 C 81 % 0 lf 1012,8 hPa 0,0 l/m 0 min 0 min 35 W/m 16,7 km/h (3 Bft) 93,62 %
23.06.2017 06:40 19,1 C 18,9 C 18,3 C 81 % 0 lf 1012,8 hPa 0,0 l/m 0 min 0 min 39 W/m 10,5 km/h (2 Bft) 95,74 %
23.06.2017 06:42 19,1 C 18,9 C 18,3 C 81 % 0 lf 1012,7 hPa 0,0 l/m 0 min 0 min 47 W/m 16,7 km/h (3 Bft) 93,48 %
23.06.2017 06:44 19,1 C 19,4 C 18,3 C 82 % 0 lf 1012,8 hPa 0,0 l/m 0 min 0 min 52 W/m 16,7 km/h (3 Bft) 93,62 %
23.06.2017 06:46 19,1 C 19,4 C 18,3 C 82 % 0 lf 1012,8 hPa 0,0 l/m 0 min 0 min 54 W/m 14,6 km/h (3 Bft) 93,62 %
23.06.2017 06:48 19,1 C 19,4 C 18,3 C 82 % 0 lf 1012,8 hPa 0,0 l/m 0 min 0 min 51 W/m 14,6 km/h (3 Bft) 93,62 %
23.06.2017 06:50 19,1 C 19,4 C 18,3 C 82 % 0 lf 1012,8 hPa 0,0 l/m 0 min 0 min 47 W/m 12,6 km/h (3 Bft) 94,83 %
23.06.2017 06:52 19,1 C 18,9 C 18,3 C 82 % 0 lf 1012,8 hPa 0,0 l/m 0 min 0 min 48 W/m 18,8 km/h (3 Bft) 97,14 %
23.06.2017 06:54 19,0 C 19,4 C 18,3 C 82 % 0 lf 1012,9 hPa 0,0 l/m 0 min 0 min 52 W/m 18,8 km/h (3 Bft) 95,74 %
23.06.2017 06:56 19,1 C 19,4 C 18,3 C 82 % 0 lf 1012,9 hPa 0,0 l/m 0 min 0 min 55 W/m 18,8 km/h (3 Bft) 93,62 %
23.06.2017 06:58 19,0 C 19,4 C 18,3 C 82 % 0 lf 1012,9 hPa 0,0 l/m 0 min 0 min 57 W/m 20,9 km/h (4 Bft) 97,87 %
23.06.2017 07:00 19,0 C 19,4 C 18,3 C 82 % 0 lf 1012,9 hPa 0,0 l/m 0 min 0 min 58 W/m 12,6 km/h (3 Bft) 95,74 %
23.06.2017 07:02 19,0 C 19,4 C 18,3 C 82 % 0 lf 1013,0 hPa 0,0 l/m 0 min 0 min 54 W/m 12,6 km/h (3 Bft) 93,62 %
23.06.2017 07:04 19,1 C 19,4 C 18,9 C 82 % 0 lf 1013,0 hPa 0,0 l/m 0 min 0 min 52 W/m 14,6 km/h (3 Bft) 97,83 %
23.06.2017 07:06 19,1 C 19,4 C 18,3 C 82 % 0 lf 1013,1 hPa 0,0 l/m 0 min 0 min 49 W/m 14,6 km/h (3 Bft) 93,75 %
23.06.2017 07:08 19,1 C 19,4 C 18,3 C 82 % 0 lf 1013,1 hPa 0,0 l/m 0 min 0 min 49 W/m 18,8 km/h (3 Bft) 97,87 %
23.06.2017 07:10 19,1 C 19,4 C 18,3 C 82 % 0 lf 1013,1 hPa 0,0 l/m 0 min 0 min 65 W/m 14,6 km/h (3 Bft) 97,87 %
23.06.2017 07:12 19,1 C 19,4 C 18,9 C 82 % 0 lf 1013,1 hPa 0,0 l/m 0 min 0 min 77 W/m 12,6 km/h (3 Bft) 95,74 %
23.06.2017 07:14 19,1 C 19,4 C 18,9 C 82 % 0 lf 1013,2 hPa 0,0 l/m 0 min 0 min 115 W/m 20,9 km/h (4 Bft) 97,87 %
23.06.2017 07:16 19,1 C 19,4 C 18,9 C 82 % 0 lf 1013,2 hPa 0,0 l/m 0 min 0 min 117 W/m 18,8 km/h (3 Bft) 97,83 %
23.06.2017 07:18 19,0 C 19,4 C 18,9 C 82 % 0 lf 1013,2 hPa 0,0 l/m 2 min 0 min 138 W/m 16,7 km/h (3 Bft) 97,87 %
23.06.2017 07:20 19,1 C 20,0 C 18,9 C 82 % 0 lf 1013,2 hPa 0,0 l/m 2 min 0 min 147 W/m 16,7 km/h (3 Bft) 97,87 %
23.06.2017 07:22 19,1 C 20,0 C 19,4 C 82 % 0 lf 1013,2 hPa 0,0 l/m 2 min 0 min 152 W/m 14,6 km/h (3 Bft) 100,00 %
23.06.2017 07:24 19,1 C 20,0 C 19,4 C 82 % 0 lf 1013,2 hPa 0,0 l/m 2 min 0 min 182 W/m 18,8 km/h (3 Bft) 97,87 %
23.06.2017 07:26 19,1 C 20,6 C 19,4 C 82 % 0 lf 1013,3 hPa 0,0 l/m 2 min 0 min 190 W/m 18,8 km/h (3 Bft) 97,83 %
23.06.2017 07:28 19,2 C 20,6 C 20,0 C 82 % 0 lf 1013,3 hPa 0,0 l/m 2 min 0 min 198 W/m 16,7 km/h (3 Bft) 97,87 %
23.06.2017 07:30 19,2 C 20,6 C 20,0 C 82 % 0 lf 1013,3 hPa 0,0 l/m 2 min 0 min 180 W/m 12,6 km/h (3 Bft) 100,00 %
23.06.2017 07:32 19,2 C 20,6 C 20,0 C 82 % 0 lf 1013,3 hPa 0,0 l/m 0 min 0 min 139 W/m 14,6 km/h (3 Bft) 100,00 %
23.06.2017 07:34 19,3 C 20,6 C 19,4 C 82 % 0 lf 1013,3 hPa 0,0 l/m 0 min 0 min 128 W/m 10,5 km/h (2 Bft) 97,87 %
23.06.2017 07:36 19,3 C 20,6 C 20,0 C 82 % 0 lf 1013,3 hPa 0,0 l/m 0 min 0 min 124 W/m 8,4 km/h (2 Bft) 97,87 %
23.06.2017 07:38 19,3 C 20,6 C 20,0 C 82 % 0 lf 1013,3 hPa 0,0 l/m 0 min 0 min 112 W/m 16,7 km/h (3 Bft) 100,00 %
23.06.2017 07:40 19,4 C 20,6 C 20,0 C 82 % 0 lf 1013,4 hPa 0,0 l/m 0 min 0 min 115 W/m 20,9 km/h (4 Bft) 97,87 %
23.06.2017 07:42 19,4 C 20,0 C 19,4 C 82 % 0 lf 1013,4 hPa 0,0 l/m 0 min 0 min 113 W/m 23,0 km/h (4 Bft) 100,00 %
23.06.2017 07:44 19,4 C 20,0 C 19,4 C 81 % 0 lf 1013,4 hPa 0,0 l/m 0 min 0 min 91 W/m 14,6 km/h (3 Bft) 100,00 %
23.06.2017 07:46 19,4 C 20,0 C 19,4 C 81 % 0 lf 1013,5 hPa 0,0 l/m 0 min 0 min 89 W/m 18,8 km/h (3 Bft) 100,00 %
23.06.2017 07:48 19,4 C 20,0 C 19,4 C 81 % 0 lf 1013,4 hPa 0,0 l/m 0 min 0 min 94 W/m 16,7 km/h (3 Bft) 97,87 %
23.06.2017 07:50 19,4 C 20,0 C 19,4 C 81 % 0 lf 1013,5 hPa 0,0 l/m 0 min 0 min 90 W/m 18,8 km/h (3 Bft) 100,00 %
23.06.2017 07:52 19,4 C 20,0 C 19,4 C 81 % 0 lf 1013,5 hPa 0,0 l/m 0 min 0 min 95 W/m 12,6 km/h (3 Bft) 93,62 %
23.06.2017 07:54 19,4 C 20,0 C 19,4 C 81 % 0 lf 1013,5 hPa 0,0 l/m 0 min 0 min 106 W/m 18,8 km/h (3 Bft) 100,00 %
23.06.2017 07:56 19,4 C 20,0 C 19,4 C 82 % 0 lf 1013,6 hPa 0,0 l/m 0 min 0 min 122 W/m 20,9 km/h (4 Bft) 97,87 %
23.06.2017 07:58 19,4 C 20,0 C 19,4 C 82 % 0 lf 1013,6 hPa 0,0 l/m 0 min 0 min 116 W/m 16,7 km/h (3 Bft) 100,00 %
23.06.2017 08:00 19,4 C 20,0 C 19,4 C 82 % 0 lf 1013,6 hPa 0,0 l/m 0 min 0 min 110 W/m 16,7 km/h (3 Bft) 100,00 %
23.06.2017 08:02 19,4 C 20,0 C 19,4 C 82 % 0 lf 1013,6 hPa 0,0 l/m 0 min 0 min 114 W/m 16,7 km/h (3 Bft) 100,00 %
23.06.2017 08:04 19,4 C 20,0 C 19,4 C 82 % 0 lf 1013,7 hPa 0,0 l/m 0 min 0 min 121 W/m 27,2 km/h (4 Bft) 97,87 %
23.06.2017 08:06 19,4 C 20,0 C 20,0 C 82 % 0 lf 1013,6 hPa 0,0 l/m 0 min 0 min 140 W/m 14,6 km/h (3 Bft) 100,00 %
23.06.2017 08:08 19,4 C 20,6 C 20,0 C 82 % 0 lf 1013,6 hPa 0,0 l/m 0 min 0 min 153 W/m 14,6 km/h (3 Bft) 100,00 %
23.06.2017 08:10 19,4 C 21,1 C 20,6 C 82 % 0 lf 1013,7 hPa 0,0 l/m 0 min 0 min 189 W/m 14,6 km/h (3 Bft) 95,74 %
23.06.2017 08:12 19,5 C 21,1 C 20,6 C 82 % 0 lf 1013,6 hPa 0,0 l/m 2 min 0 min 211 W/m 14,6 km/h (3 Bft) 100,00 %
23.06.2017 08:14 19,6 C 21,1 C 20,6 C 82 % 0 lf 1013,6 hPa 0,0 l/m 2 min 0 min 227 W/m 14,6 km/h (3 Bft) 97,83 %
23.06.2017 08:16 19,6 C 21,1 C 20,6 C 82 % 0 lf 1013,7 hPa 0,0 l/m 2 min 0 min 224 W/m 16,7 km/h (3 Bft) 97,87 %
23.06.2017 08:18 19,6 C 21,7 C 20,6 C 81 % 0 lf 1013,7 hPa 0,0 l/m 2 min 0 min 240 W/m 18,8 km/h (3 Bft) 100,00 %
23.06.2017 08:20 19,6 C 21,7 C 20,6 C 81 % 0 lf 1013,7 hPa 0,0 l/m 2 min 0 min 262 W/m 16,7 km/h (3 Bft) 100,00 %
23.06.2017 08:22 19,7 C 22,2 C 21,1 C 81 % 0 lf 1013,6 hPa 0,0 l/m 2 min 0 min 322 W/m 14,6 km/h (3 Bft) 97,87 %
23.06.2017 08:24 19,7 C 22,8 C 21,1 C 81 % 0 lf 1013,6 hPa 0,0 l/m 2 min 0 min 280 W/m 14,6 km/h (3 Bft) 97,87 %
23.06.2017 08:26 19,8 C 22,2 C 21,1 C 81 % 0 lf 1013,6 hPa 0,0 l/m 2 min 0 min 231 W/m 16,7 km/h (3 Bft) 95,65 %
23.06.2017 08:28 19,8 C 22,2 C 21,1 C 81 % 0 lf 1013,7 hPa 0,0 l/m 2 min 0 min 212 W/m 14,6 km/h (3 Bft) 97,87 %
23.06.2017 08:30 19,8 C 22,2 C 20,6 C 81 % 0 lf 1013,7 hPa 0,0 l/m 0 min 0 min 198 W/m 18,8 km/h (3 Bft) 97,87 %
23.06.2017 08:32 19,9 C 21,7 C 20,6 C 81 % 0 lf 1013,8 hPa 0,0 l/m 0 min 0 min 196 W/m 16,7 km/h (3 Bft) 97,87 %
23.06.2017 08:34 19,9 C 22,2 C 20,6 C 81 % 0 lf 1013,8 hPa 0,0 l/m 2 min 0 min 249 W/m 12,6 km/h (3 Bft) 95,74 %
23.06.2017 08:36 19,9 C 22,2 C 20,6 C 81 % 0 lf 1013,8 hPa 0,0 l/m 2 min 0 min 234 W/m 14,6 km/h (3 Bft) 95,83 %
23.06.2017 08:38 19,9 C 22,8 C 20,6 C 81 % 0 lf 1013,9 hPa 0,0 l/m 2 min 0 min 282 W/m 14,6 km/h (3 Bft) 93,48 %
23.06.2017 08:40 19,9 C 23,3 C 20,6 C 80 % 0 lf 1013,9 hPa 0,0 l/m 2 min 0 min 300 W/m 16,7 km/h (3 Bft) 93,62 %
23.06.2017 08:42 20,0 C 23,9 C 20,6 C 81 % 0 lf 1013,9 hPa 0,0 l/m 2 min 0 min 329 W/m 14,6 km/h (3 Bft) 91,49 %
23.06.2017 08:44 20,0 C 24,4 C 20,6 C 81 % 0 lf 1013,9 hPa 0,0 l/m 2 min 0 min 306 W/m 12,6 km/h (3 Bft) 93,62 %
23.06.2017 08:46 20,1 C 24,4 C 21,1 C 80 % 0 lf 1014,0 hPa 0,0 l/m 2 min 0 min 278 W/m 12,6 km/h (3 Bft) 95,74 %
23.06.2017 08:48 20,1 C 24,4 C 21,1 C 80 % 0 lf 1014,0 hPa 0,0 l/m 2 min 0 min 290 W/m 14,6 km/h (3 Bft) 95,74 %
23.06.2017 08:50 20,2 C 24,4 C 21,1 C 80 % 0 lf 1014,0 hPa 0,0 l/m 2 min 0 min 320 W/m 14,6 km/h (3 Bft) 93,48 %
23.06.2017 08:52 20,2 C 25,0 C 21,1 C 80 % 0 lf 1014,0 hPa 0,0 l/m 2 min 0 min 340 W/m 14,6 km/h (3 Bft) 95,74 %
23.06.2017 08:54 20,2 C 25,0 C 20,6 C 80 % 0 lf 1014,0 hPa 0,0 l/m 2 min 0 min 310 W/m 14,6 km/h (3 Bft) 95,74 %
23.06.2017 08:56 20,3 C 24,4 C 20,6 C 80 % 0 lf 1014,0 hPa 0,0 l/m 2 min 0 min 290 W/m 14,6 km/h (3 Bft) 95,74 %
23.06.2017 08:58 20,3 C 24,4 C 20,6 C 80 % 0 lf 1014,0 hPa 0,0 l/m 2 min 0 min 296 W/m 14,6 km/h (3 Bft) 95,74 %
23.06.2017 09:00 20,3 C 23,9 C 20,6 C 80 % 0 lf 1014,0 hPa 0,0 l/m 2 min 0 min 265 W/m 20,9 km/h (4 Bft) 97,83 %
23.06.2017 09:02 20,4 C 23,3 C 21,1 C 80 % 0 lf 1014,0 hPa 0,0 l/m 2 min 0 min 280 W/m 12,6 km/h (3 Bft) 93,62 %
23.06.2017 09:04 20,4 C 23,9 C 21,1 C 80 % 0 lf 1014,0 hPa 0,0 l/m 2 min 0 min 285 W/m 20,9 km/h (4 Bft) 97,87 %
23.06.2017 09:06 20,4 C 23,3 C 21,1 C 79 % 0 lf 1014,0 hPa 0,0 l/m 2 min 0 min 278 W/m 23,0 km/h (4 Bft) 97,87 %
23.06.2017 09:08 20,4 C 23,3 C 20,6 C 79 % 0 lf 1014,0 hPa 0,0 l/m 2 min 0 min 299 W/m 18,8 km/h (3 Bft) 97,87 %
23.06.2017 09:10 20,4 C 23,9 C 21,1 C 79 % 0 lf 1014,0 hPa 0,0 l/m 2 min 0 min 328 W/m 18,8 km/h (3 Bft) 97,87 %
23.06.2017 09:12 20,4 C 23,3 C 21,1 C 79 % 0 lf 1014,0 hPa 0,0 l/m 2 min 0 min 298 W/m 12,6 km/h (3 Bft) 93,48 %
23.06.2017 09:14 20,4 C 23,3 C 21,1 C 79 % 0 lf 1014,0 hPa 0,0 l/m 2 min 0 min 306 W/m 14,6 km/h (3 Bft) 95,74 %
23.06.2017 09:16 20,5 C 23,9 C 21,7 C 80 % 0 lf 1014,0 hPa 0,0 l/m 2 min 0 min 331 W/m 12,6 km/h (3 Bft) 93,62 %
23.06.2017 09:18 20,5 C 23,9 C 21,7 C 79 % 0 lf 1014,0 hPa 0,0 l/m 2 min 0 min 319 W/m 12,6 km/h (3 Bft) 91,49 %
23.06.2017 09:20 20,6 C 23,9 C 21,7 C 79 % 0 lf 1014,1 hPa 0,0 l/m 2 min 0 min 295 W/m 10,5 km/h (2 Bft) 97,87 %
23.06.2017 09:22 20,6 C 23,9 C 21,7 C 79 % 0 lf 1014,0 hPa 0,0 l/m 2 min 0 min 301 W/m 12,6 km/h (3 Bft) 97,87 %
23.06.2017 09:24 20,6 C 24,4 C 21,7 C 79 % 0 lf 1014,0 hPa 0,0 l/m 2 min 0 min 342 W/m 12,6 km/h (3 Bft) 97,83 %
23.06.2017 09:26 20,7 C 25,0 C 21,7 C 79 % 0 lf 1014,0 hPa 0,0 l/m 2 min 0 min 293 W/m 14,6 km/h (3 Bft) 93,62 %
23.06.2017 09:28 20,7 C 23,9 C 21,7 C 79 % 0 lf 1014,0 hPa 0,0 l/m 2 min 0 min 303 W/m 12,6 km/h (3 Bft) 97,87 %
23.06.2017 09:30 20,8 C 23,9 C 21,1 C 79 % 0 lf 1014,0 hPa 0,0 l/m 2 min 0 min 310 W/m 10,5 km/h (2 Bft) 97,87 %
23.06.2017 09:32 20,8 C 23,9 C 21,7 C 79 % 0 lf 1014,0 hPa 0,0 l/m 2 min 0 min 330 W/m 12,6 km/h (3 Bft) 97,87 %
23.06.2017 09:34 20,8 C 24,4 C 21,7 C 79 % 0 lf 1014,0 hPa 0,0 l/m 2 min 0 min 361 W/m 12,6 km/h (3 Bft) 97,87 %
23.06.2017 09:36 20,9 C 26,1 C 22,8 C 79 % 0 lf 1014,1 hPa 0,0 l/m 2 min 0 min 475 W/m 8,4 km/h (2 Bft) 97,87 %
23.06.2017 09:38 20,9 C 26,7 C 22,8 C 79 % 0 lf 1014,1 hPa 0,0 l/m 2 min 0 min 452 W/m 8,4 km/h (2 Bft) 97,87 %
23.06.2017 09:40 21,1 C 27,8 C 23,3 C 79 % 0 lf 1014,0 hPa 0,0 l/m 2 min 0 min 396 W/m 14,6 km/h (3 Bft) 97,87 %
23.06.2017 09:42 21,1 C 27,2 C 23,3 C 78 % 0 lf 1014,0 hPa 0,0 l/m 2 min 0 min 360 W/m 14,6 km/h (3 Bft) 95,74 %
23.06.2017 09:44 21,2 C 26,7 C 23,3 C 79 % 0 lf 1014,0 hPa 0,0 l/m 2 min 0 min 380 W/m 10,5 km/h (2 Bft) 93,62 %
23.06.2017 09:46 21,3 C 26,1 C 23,3 C 78 % 0 lf 1014,0 hPa 0,0 l/m 2 min 0 min 415 W/m 16,7 km/h (3 Bft) 93,62 %
23.06.2017 09:48 21,4 C 26,1 C 23,3 C 78 % 0 lf 1014,0 hPa 0,0 l/m 2 min 0 min 397 W/m 10,5 km/h (2 Bft) 97,83 %
23.06.2017 09:50 21,4 C 25,6 C 23,3 C 78 % 0 lf 1014,0 hPa 0,0 l/m 2 min 0 min 446 W/m 16,7 km/h (3 Bft) 91,49 %
23.06.2017 09:52 21,5 C 25,6 C 23,3 C 77 % 0 lf 1014,1 hPa 0,0 l/m 2 min 0 min 358 W/m 12,6 km/h (3 Bft) 91,49 %
23.06.2017 09:54 21,6 C 25,0 C 23,3 C 77 % 0 lf 1014,1 hPa 0,0 l/m 2 min 0 min 352 W/m 8,4 km/h (2 Bft) 95,74 %
23.06.2017 09:56 21,6 C 25,0 C 23,3 C 77 % 0 lf 1014,1 hPa 0,0 l/m 2 min 0 min 339 W/m 14,6 km/h (3 Bft) 95,74 %
23.06.2017 09:58 21,6 C 25,0 C 23,3 C 77 % 0 lf 1014,1 hPa 0,0 l/m 2 min 0 min 341 W/m 12,6 km/h (3 Bft) 93,62 %
23.06.2017 10:00 21,7 C 24,4 C 23,3 C 77 % 0 lf 1014,1 hPa 0,0 l/m 2 min 0 min 355 W/m 12,6 km/h (3 Bft) 95,65 %
23.06.2017 10:02 21,7 C 24,4 C 23,3 C 77 % 0 lf 1014,1 hPa 0,0 l/m 2 min 0 min 363 W/m 18,8 km/h (3 Bft) 93,62 %
23.06.2017 10:04 21,7 C 23,9 C 23,3 C 77 % 0 lf 1014,2 hPa 0,0 l/m 0 min 0 min 307 W/m 18,8 km/h (3 Bft) 95,74 %
23.06.2017 10:06 21,7 C 24,4 C 23,9 C 77 % 0 lf 1014,2 hPa 0,0 l/m 2 min 0 min 376 W/m 16,7 km/h (3 Bft) 95,74 %
23.06.2017 10:08 21,7 C 25,6 C 23,9 C 76 % 0 lf 1014,2 hPa 0,0 l/m 2 min 0 min 413 W/m 10,5 km/h (2 Bft) 89,36 %
23.06.2017 10:10 21,8 C 26,1 C 24,4 C 77 % 0 lf 1014,2 hPa 0,0 l/m 2 min 0 min 409 W/m 10,5 km/h (2 Bft) 97,87 %
23.06.2017 10:12 21,8 C 26,1 C 24,4 C 77 % 0 lf 1014,2 hPa 0,0 l/m 2 min 0 min 466 W/m 18,8 km/h (3 Bft) 97,83 %
23.06.2017 10:14 21,9 C 26,1 C 24,4 C 76 % 0 lf 1014,2 hPa 0,0 l/m 2 min 0 min 426 W/m 16,7 km/h (3 Bft) 97,87 %
23.06.2017 10:16 21,9 C 26,7 C 25,0 C 76 % 0 lf 1014,2 hPa 0,0 l/m 2 min 0 min 482 W/m 18,8 km/h (3 Bft) 97,87 %
23.06.2017 10:18 21,9 C 26,7 C 25,6 C 75 % 0 lf 1014,3 hPa 0,0 l/m 2 min 0 min 532 W/m 14,6 km/h (3 Bft) 97,87 %
23.06.2017 10:20 22,0 C 27,8 C 26,1 C 75 % 0 lf 1014,2 hPa 0,0 l/m 2 min 0 min 494 W/m 12,6 km/h (3 Bft) 93,62 %
23.06.2017 10:22 22,1 C 26,7 C 26,1 C 75 % 0 lf 1014,2 hPa 0,0 l/m 2 min 0 min 557 W/m 16,7 km/h (3 Bft) 97,83 %
23.06.2017 10:24 22,2 C 27,2 C 26,1 C 75 % 0 lf 1014,3 hPa 0,0 l/m 2 min 0 min 522 W/m 14,6 km/h (3 Bft) 97,87 %
23.06.2017 10:26 22,3 C 26,1 C 25,6 C 75 % 0 lf 1014,4 hPa 0,0 l/m 2 min 0 min 360 W/m 23,0 km/h (4 Bft) 97,87 %
23.06.2017 10:28 22,3 C 26,1 C 25,6 C 74 % 0 lf 1014,3 hPa 0,0 l/m 0 min 0 min 311 W/m 16,7 km/h (3 Bft) 95,74 %
23.06.2017 10:30 22,3 C 25,0 C 25,0 C 74 % 0 lf 1014,3 hPa 0,0 l/m 0 min 0 min 336 W/m 23,0 km/h (4 Bft) 97,87 %
23.06.2017 10:32 22,4 C 25,0 C 25,0 C 73 % 0 lf 1014,4 hPa 0,0 l/m 0 min 0 min 322 W/m 14,6 km/h (3 Bft) 95,74 %
23.06.2017 10:34 22,4 C 24,4 C 24,4 C 73 % 0 lf 1014,3 hPa 0,0 l/m 0 min 0 min 268 W/m 18,8 km/h (3 Bft) 95,65 %
23.06.2017 10:36 22,4 C 24,4 C 24,4 C 73 % 0 lf 1014,4 hPa 0,0 l/m 0 min 0 min 260 W/m 16,7 km/h (3 Bft) 91,49 %
23.06.2017 10:38 22,4 C 24,4 C 24,4 C 73 % 0 lf 1014,3 hPa 0,0 l/m 0 min 0 min 255 W/m 18,8 km/h (3 Bft) 95,74 %
23.06.2017 10:40 22,4 C 24,4 C 23,9 C 73 % 0 lf 1014,5 hPa 0,0 l/m 0 min 0 min 239 W/m 16,7 km/h (3 Bft) 95,74 %
23.06.2017 10:42 22,4 C 24,4 C 24,4 C 73 % 0 lf 1014,5 hPa 0,0 l/m 0 min 0 min 269 W/m 10,5 km/h (2 Bft) 95,74 %
23.06.2017 10:44 22,4 C 24,4 C 24,4 C 73 % 0 lf 1014,4 hPa 0,0 l/m 0 min 0 min 277 W/m 8,4 km/h (2 Bft) 97,87 %
23.06.2017 10:46 22,4 C 24,4 C 24,4 C 73 % 0 lf 1014,4 hPa 0,0 l/m 0 min 0 min 280 W/m 12,6 km/h (3 Bft) 93,48 %
23.06.2017 10:48 22,4 C 24,4 C 24,4 C 73 % 0 lf 1014,5 hPa 0,0 l/m 0 min 0 min 266 W/m 10,5 km/h (2 Bft) 97,87 %
23.06.2017 10:50 22,4 C 23,9 C 23,9 C 73 % 0 lf 1014,5 hPa 0,0 l/m 0 min 0 min 248 W/m 12,6 km/h (3 Bft) 97,87 %
23.06.2017 10:52 22,4 C 23,9 C 23,9 C 73 % 0 lf 1014,6 hPa 0,0 l/m 0 min 0 min 251 W/m 14,6 km/h (3 Bft) 97,87 %
23.06.2017 10:54 22,4 C 24,4 C 24,4 C 73 % 0 lf 1014,6 hPa 0,0 l/m 0 min 0 min 254 W/m 10,5 km/h (2 Bft) 97,87 %
23.06.2017 10:56 22,5 C 24,4 C 23,9 C 73 % 0 lf 1014,6 hPa 0,0 l/m 0 min 0 min 256 W/m 10,5 km/h (2 Bft) 95,74 %
23.06.2017 10:58 22,5 C 24,4 C 23,9 C 73 % 0 lf 1014,6 hPa 0,0 l/m 0 min 0 min 272 W/m 10,5 km/h (2 Bft) 97,83 %
23.06.2017 11:00 22,5 C 25,0 C 24,4 C 73 % 0 lf 1014,6 hPa 0,0 l/m 0 min 0 min 301 W/m 4,2 km/h (1 Bft) 97,87 %
23.06.2017 11:02 22,5 C 25,0 C 24,4 C 73 % 0 lf 1014,6 hPa 0,0 l/m 0 min 0 min 276 W/m 20,9 km/h (4 Bft) 97,87 %
23.06.2017 11:04 22,5 C 24,4 C 24,4 C 73 % 0 lf 1014,6 hPa 0,0 l/m 0 min 0 min 236 W/m 20,9 km/h (4 Bft) 97,87 %
23.06.2017 11:06 22,5 C 23,9 C 24,4 C 73 % 0 lf 1014,6 hPa 0,0 l/m 0 min 0 min 223 W/m 14,6 km/h (3 Bft) 95,74 %
23.06.2017 11:08 22,5 C 23,9 C 23,9 C 73 % 0 lf 1014,6 hPa 0,0 l/m 0 min 0 min 215 W/m 8,4 km/h (2 Bft) 95,74 %
23.06.2017 11:10 22,5 C 23,9 C 23,9 C 73 % 0 lf 1014,6 hPa 0,0 l/m 0 min 0 min 221 W/m 12,6 km/h (3 Bft) 95,65 %
23.06.2017 11:12 22,5 C 24,4 C 24,4 C 73 % 0 lf 1014,6 hPa 0,0 l/m 0 min 0 min 270 W/m 12,6 km/h (3 Bft) 95,74 %
23.06.2017 11:14 22,6 C 24,4 C 24,4 C 73 % 0 lf 1014,6 hPa 0,0 l/m 0 min 0 min 276 W/m 14,6 km/h (3 Bft) 97,87 %
23.06.2017 11:16 22,6 C 23,9 C 23,9 C 73 % 0 lf 1014,6 hPa 0,0 l/m 0 min 0 min 213 W/m 16,7 km/h (3 Bft) 97,87 %
23.06.2017 11:18 22,6 C 23,9 C 23,9 C 73 % 0 lf 1014,6 hPa 0,0 l/m 0 min 0 min 207 W/m 18,8 km/h (3 Bft) 100,00 %
23.06.2017 11:20 22,6 C 24,4 C 24,4 C 73 % 0 lf 1014,6 hPa 0,0 l/m 0 min 0 min 262 W/m 16,7 km/h (3 Bft) 93,62 %
23.06.2017 11:22 22,6 C 26,1 C 25,6 C 73 % 0 lf 1014,6 hPa 0,0 l/m 0 min 0 min 300 W/m 12,6 km/h (3 Bft) 97,96 %
23.06.2017 11:24 22,6 C 26,7 C 26,1 C 74 % 0 lf 1014,6 hPa 0,0 l/m 2 min 0 min 516 W/m 18,8 km/h (3 Bft) 97,87 %
23.06.2017 11:26 22,7 C 26,1 C 25,6 C 73 % 0 lf 1014,6 hPa 0,0 l/m 0 min 0 min 269 W/m 14,6 km/h (3 Bft) 97,87 %
23.06.2017 11:28 22,7 C 25,0 C 25,6 C 73 % 0 lf 1014,7 hPa 0,0 l/m 0 min 0 min 273 W/m 14,6 km/h (3 Bft) 97,83 %
23.06.2017 11:30 22,8 C 25,0 C 25,0 C 73 % 0 lf 1014,6 hPa 0,0 l/m 0 min 0 min 334 W/m 18,8 km/h (3 Bft) 97,87 %
23.06.2017 11:32 22,8 C 25,0 C 25,0 C 72 % 0 lf 1014,6 hPa 0,0 l/m 0 min 0 min 305 W/m 18,8 km/h (3 Bft) 95,74 %
23.06.2017 11:34 22,8 C 25,0 C 25,0 C 72 % 0 lf 1014,6 hPa 0,0 l/m 0 min 0 min 347 W/m 23,0 km/h (4 Bft) 97,87 %
23.06.2017 11:36 22,8 C 25,6 C 25,6 C 72 % 0 lf 1014,7 hPa 0,0 l/m 0 min 0 min 364 W/m 18,8 km/h (3 Bft) 95,74 %
23.06.2017 11:38 22,9 C 26,7 C 26,1 C 72 % 0 lf 1014,7 hPa 0,0 l/m 2 min 0 min 540 W/m 25,1 km/h (4 Bft) 97,87 %
23.06.2017 11:40 22,9 C 26,1 C 26,1 C 71 % 0 lf 1014,7 hPa 0,0 l/m 2 min 0 min 542 W/m 25,1 km/h (4 Bft) 97,83 %
23.06.2017 11:42 23,0 C 26,1 C 25,6 C 71 % 0 lf 1014,6 hPa 0,0 l/m 0 min 0 min 278 W/m 16,7 km/h (3 Bft) 97,87 %
23.06.2017 11:44 23,0 C 26,1 C 25,6 C 72 % 0 lf 1014,6 hPa 0,0 l/m 0 min 0 min 314 W/m 20,9 km/h (4 Bft) 97,83 %
23.06.2017 11:46 23,1 C 25,6 C 25,6 C 71 % 0 lf 1014,6 hPa 0,0 l/m 0 min 0 min 345 W/m 20,9 km/h (4 Bft) 97,87 %
23.06.2017 11:48 23,1 C 25,6 C 25,6 C 72 % 0 lf 1014,7 hPa 0,0 l/m 0 min 0 min 333 W/m 20,9 km/h (4 Bft) 97,87 %
23.06.2017 11:50 23,1 C 25,6 C 25,6 C 71 % 0 lf 1014,7 hPa 0,0 l/m 0 min 0 min 323 W/m 18,8 km/h (3 Bft) 95,74 %
23.06.2017 11:52 23,1 C 25,0 C 25,0 C 71 % 0 lf 1014,7 hPa 0,0 l/m 0 min 0 min 324 W/m 10,5 km/h (2 Bft) 97,83 %
23.06.2017 11:54 23,1 C 25,0 C 25,6 C 72 % 0 lf 1014,7 hPa 0,0 l/m 0 min 0 min 313 W/m 12,6 km/h (3 Bft) 100,00 %
23.06.2017 11:56 23,2 C 25,0 C 25,6 C 71 % 0 lf 1014,7 hPa 0,0 l/m 0 min 0 min 335 W/m 20,9 km/h (4 Bft) 100,00 %
23.06.2017 11:58 23,2 C 25,0 C 25,6 C 71 % 0 lf 1014,7 hPa 0,0 l/m 0 min 0 min 356 W/m 20,9 km/h (4 Bft) 100,00 %
23.06.2017 12:00 23,2 C 25,0 C 25,0 C 71 % 0 lf 1014,8 hPa 0,0 l/m 0 min 0 min 339 W/m 16,7 km/h (3 Bft) 100,00 %
23.06.2017 12:02 23,2 C 25,0 C 25,0 C 71 % 0 lf 1014,8 hPa 0,0 l/m 0 min 0 min 265 W/m 23,0 km/h (4 Bft) 95,74 %
23.06.2017 12:04 23,2 C 23,9 C 24,4 C 70 % 0 lf 1014,8 hPa 0,0 l/m 0 min 0 min 201 W/m 16,7 km/h (3 Bft) 100,00 %
23.06.2017 12:06 23,1 C 23,9 C 23,9 C 70 % 0 lf 1014,8 hPa 0,0 l/m 0 min 0 min 191 W/m 23,0 km/h (4 Bft) 100,00 %
23.06.2017 12:08 23,1 C 23,9 C 23,9 C 69 % 0 lf 1014,8 hPa 0,0 l/m 0 min 0 min 232 W/m 23,0 km/h (4 Bft) 100,00 %
23.06.2017 12:10 23,0 C 24,4 C 24,4 C 70 % 0 lf 1014,8 hPa 0,0 l/m 0 min 0 min 295 W/m 18,8 km/h (3 Bft) 100,00 %
23.06.2017 12:12 23,0 C 25,0 C 25,0 C 71 % 0 lf 1014,8 hPa 0,0 l/m 0 min 0 min 349 W/m 16,7 km/h (3 Bft) 97,87 %
23.06.2017 12:14 23,0 C 25,0 C 25,0 C 70 % 0 lf 1014,8 hPa 0,0 l/m 0 min 0 min 299 W/m 18,8 km/h (3 Bft) 97,87 %
23.06.2017 12:16 23,0 C 25,0 C 25,0 C 71 % 0 lf 1014,8 hPa 0,0 l/m 0 min 0 min 254 W/m 18,8 km/h (3 Bft) 100,00 %
23.06.2017 12:18 23,0 C 25,0 C 24,4 C 71 % 0 lf 1014,8 hPa 0,0 l/m 0 min 0 min 250 W/m 14,6 km/h (3 Bft) 100,00 %
23.06.2017 12:20 23,1 C 25,0 C 24,4 C 71 % 0 lf 1014,8 hPa 0,0 l/m 0 min 0 min 281 W/m 14,6 km/h (3 Bft) 100,00 %
23.06.2017 12:22 23,1 C 25,6 C 25,0 C 71 % 0 lf 1014,8 hPa 0,0 l/m 0 min 0 min 355 W/m 12,6 km/h (3 Bft) 97,87 %
23.06.2017 12:24 23,1 C 25,6 C 25,6 C 70 % 0 lf 1014,7 hPa 0,0 l/m 0 min 0 min 382 W/m 16,7 km/h (3 Bft) 97,87 %
23.06.2017 12:26 23,2 C 26,7 C 26,1 C 71 % 0 lf 1014,7 hPa 0,0 l/m 2 min 0 min 438 W/m 18,8 km/h (3 Bft) 100,00 %
23.06.2017 12:28 23,2 C 27,8 C 27,2 C 71 % 0 lf 1014,7 hPa 0,0 l/m 2 min 0 min 496 W/m 14,6 km/h (3 Bft) 95,74 %
23.06.2017 12:30 23,4 C 28,9 C 27,8 C 71 % 0 lf 1014,7 hPa 0,0 l/m 2 min 0 min 662 W/m 18,8 km/h (3 Bft) 95,74 %
23.06.2017 12:32 23,6 C 30,0 C 28,9 C 69 % 0 lf 1014,7 hPa 0,0 l/m 2 min 0 min 555 W/m 27,2 km/h (4 Bft) 95,74 %
23.06.2017 12:34 23,7 C 29,4 C 28,3 C 68 % 0 lf 1014,8 hPa 0,0 l/m 2 min 0 min 472 W/m 18,8 km/h (3 Bft) 97,87 %
23.06.2017 12:36 23,8 C 28,3 C 27,8 C 68 % 0 lf 1014,7 hPa 0,0 l/m 0 min 0 min 363 W/m 20,9 km/h (4 Bft) 97,87 %
23.06.2017 12:38 23,8 C 27,2 C 26,7 C 67 % 0 lf 1014,9 hPa 0,0 l/m 0 min 0 min 330 W/m 29,3 km/h (5 Bft) 93,62 %
23.06.2017 12:40 23,8 C 26,7 C 26,7 C 67 % 0 lf 1014,8 hPa 0,0 l/m 0 min 0 min 389 W/m 25,1 km/h (4 Bft) 95,65 %
23.06.2017 12:42 23,9 C 26,7 C 27,2 C 67 % 0 lf 1014,9 hPa 0,0 l/m 2 min 0 min 434 W/m 27,2 km/h (4 Bft) 91,49 %
23.06.2017 12:44 23,9 C 27,8 C 27,8 C 68 % 0 lf 1014,9 hPa 0,0 l/m 2 min 0 min 491 W/m 18,8 km/h (3 Bft) 95,74 %
23.06.2017 12:46 24,0 C 27,2 C 27,8 C 68 % 0 lf 1014,9 hPa 0,0 l/m 2 min 0 min 465 W/m 25,1 km/h (4 Bft) 95,74 %
23.06.2017 12:48 24,1 C 27,2 C 27,8 C 68 % 0 lf 1014,8 hPa 0,0 l/m 0 min 0 min 410 W/m 18,8 km/h (3 Bft) 95,74 %
23.06.2017 12:50 24,1 C 27,8 C 27,8 C 67 % 0 lf 1014,9 hPa 0,0 l/m 2 min 0 min 421 W/m 25,1 km/h (4 Bft) 93,62 %
23.06.2017 12:52 24,1 C 27,8 C 27,8 C 67 % 0 lf 1014,9 hPa 0,0 l/m 2 min 0 min 528 W/m 25,1 km/h (4 Bft) 95,65 %
23.06.2017 12:54 24,2 C 28,9 C 28,3 C 66 % 0 lf 1014,9 hPa 0,0 l/m 2 min 0 min 557 W/m 20,9 km/h (4 Bft) 93,62 %
23.06.2017 12:56 24,3 C 30,6 C 29,4 C 67 % 0 lf 1014,8 hPa 0,0 l/m 2 min 0 min 616 W/m 18,8 km/h (3 Bft) 95,74 %
23.06.2017 12:58 24,4 C 31,1 C 30,0 C 66 % 0 lf 1014,8 hPa 0,0 l/m 2 min 0 min 942 W/m 16,7 km/h (3 Bft) 93,62 %
23.06.2017 13:00 24,5 C 29,4 C 29,4 C 65 % 0 lf 1014,8 hPa 0,0 l/m 2 min 0 min 498 W/m 16,7 km/h (3 Bft) 93,62 %
23.06.2017 13:02 24,6 C 29,4 C 28,9 C 65 % 0 lf 1014,8 hPa 0,0 l/m 0 min 0 min 401 W/m 14,6 km/h (3 Bft) 95,65 %
23.06.2017 13:04 24,7 C 28,9 C 28,3 C 65 % 0 lf 1014,8 hPa 0,0 l/m 0 min 0 min 321 W/m 12,6 km/h (3 Bft) 91,49 %
23.06.2017 13:06 24,8 C 27,8 C 28,3 C 65 % 0 lf 1014,8 hPa 0,0 l/m 0 min 0 min 278 W/m 18,8 km/h (3 Bft) 93,62 %
23.06.2017 13:08 24,8 C 27,2 C 27,8 C 64 % 0 lf 1014,7 hPa 0,0 l/m 0 min 0 min 311 W/m 25,1 km/h (4 Bft) 93,62 %
23.06.2017 13:10 24,9 C 27,8 C 27,8 C 64 % 0 lf 1014,7 hPa 0,0 l/m 0 min 0 min 371 W/m 14,6 km/h (3 Bft) 91,49 %
23.06.2017 13:12 24,9 C 28,9 C 27,8 C 62 % 0 lf 1014,7 hPa 0,0 l/m 2 min 0 min 443 W/m 20,9 km/h (4 Bft) 93,62 %
23.06.2017 13:14 24,9 C 29,4 C 27,8 C 63 % 0 lf 1014,7 hPa 0,0 l/m 2 min 0 min 448 W/m 18,8 km/h (3 Bft) 93,48 %
23.06.2017 13:16 25,0 C 28,9 C 27,8 C 63 % 0 lf 1014,7 hPa 0,0 l/m 2 min 0 min 448 W/m 27,2 km/h (4 Bft) 93,62 %
23.06.2017 13:18 25,0 C 30,6 C 28,9 C 63 % 0 lf 1014,8 hPa 0,0 l/m 2 min 0 min 695 W/m 27,2 km/h (4 Bft) 95,74 %
23.06.2017 13:20 25,1 C 30,0 C 28,9 C 62 % 0 lf 1014,7 hPa 0,0 l/m 2 min 0 min 906 W/m 31,4 km/h (5 Bft) 95,74 %
23.06.2017 13:22 25,1 C 28,9 C 28,3 C 62 % 0 lf 1014,7 hPa 0,0 l/m 0 min 0 min 375 W/m 25,1 km/h (4 Bft) 95,74 %
23.06.2017 13:24 25,1 C 28,3 C 27,8 C 62 % 0 lf 1014,7 hPa 0,0 l/m 0 min 0 min 416 W/m 23,0 km/h (4 Bft) 95,74 %
23.06.2017 13:26 25,1 C 28,9 C 28,3 C 63 % 0 lf 1014,7 hPa 0,0 l/m 2 min 0 min 471 W/m 16,7 km/h (3 Bft) 95,65 %
23.06.2017 13:28 25,1 C 29,4 C 28,9 C 64 % 0 lf 1014,8 hPa 0,0 l/m 2 min 0 min 526 W/m 16,7 km/h (3 Bft) 97,87 %
23.06.2017 13:30 25,2 C 31,7 C 29,4 C 64 % 0 lf 1014,7 hPa 0,0 l/m 2 min 0 min 538 W/m 12,6 km/h (3 Bft) 97,87 %
23.06.2017 13:32 25,4 C 33,3 C 29,4 C 63 % 0 lf 1014,8 hPa 0,0 l/m 2 min 0 min 801 W/m 14,6 km/h (3 Bft) 95,74 %
23.06.2017 13:34 25,6 C 33,3 C 29,4 C 62 % 0 lf 1014,8 hPa 0,0 l/m 2 min 0 min 918 W/m 23,0 km/h (4 Bft) 97,87 %
23.06.2017 13:36 25,7 C 31,7 C 28,9 C 61 % 0 lf 1014,8 hPa 0,0 l/m 2 min 0 min 726 W/m 31,4 km/h (5 Bft) 95,74 %
23.06.2017 13:38 25,7 C 30,6 C 28,9 C 61 % 0 lf 1014,7 hPa 0,0 l/m 2 min 0 min 726 W/m 27,2 km/h (4 Bft) 97,83 %
23.06.2017 13:40 25,7 C 29,4 C 28,3 C 61 % 0 lf 1014,8 hPa 0,0 l/m 2 min 0 min 732 W/m 20,9 km/h (4 Bft) 100,00 %
23.06.2017 13:42 25,7 C 28,9 C 28,3 C 61 % 0 lf 1014,8 hPa 0,0 l/m 2 min 0 min 731 W/m 23,0 km/h (4 Bft) 95,74 %
23.06.2017 13:44 25,6 C 28,3 C 27,8 C 61 % 0 lf 1014,8 hPa 0,0 l/m 2 min 0 min 700 W/m 20,9 km/h (4 Bft) 95,74 %
23.06.2017 13:46 25,6 C 30,0 C 28,9 C 62 % 0 lf 1014,8 hPa 0,0 l/m 2 min 0 min 700 W/m 14,6 km/h (3 Bft) 97,87 %
23.06.2017 13:48 25,7 C 31,1 C 29,4 C 62 % 0 lf 1014,8 hPa 0,0 l/m 2 min 0 min 980 W/m 20,9 km/h (4 Bft) 95,74 %
23.06.2017 13:50 25,8 C 31,1 C 29,4 C 61 % 0 lf 1014,8 hPa 0,0 l/m 2 min 0 min 909 W/m 23,0 km/h (4 Bft) 91,30 %
23.06.2017 13:52 25,9 C 32,2 C 30,0 C 61 % 0 lf 1014,7 hPa 0,0 l/m 2 min 0 min 1190 W/m 23,0 km/h (4 Bft) 91,49 %
23.06.2017 13:54 25,9 C 29,4 C 29,4 C 59 % 0 lf 1014,7 hPa 0,0 l/m 2 min 0 min 971 W/m 27,2 km/h (4 Bft) 95,74 %
23.06.2017 13:56 25,9 C 30,0 C 28,9 C 59 % 0 lf 1014,7 hPa 0,0 l/m 2 min 0 min 840 W/m 23,0 km/h (4 Bft) 93,62 %
23.06.2017 13:58 25,9 C 28,9 C 28,3 C 60 % 0 lf 1014,7 hPa 0,0 l/m 2 min 0 min 787 W/m 33,5 km/h (5 Bft) 97,87 %
23.06.2017 14:00 25,9 C 31,1 C 29,4 C 61 % 0 lf 1014,7 hPa 0,0 l/m 2 min 0 min 771 W/m 18,8 km/h (3 Bft) 97,87 %
23.06.2017 14:02 26,0 C 31,7 C 30,0 C 60 % 0 lf 1014,7 hPa 0,0 l/m 2 min 0 min 1164 W/m 18,8 km/h (3 Bft) 97,83 %
23.06.2017 14:04 26,1 C 30,6 C 30,0 C 60 % 0 lf 1014,6 hPa 0,0 l/m 2 min 0 min 781 W/m 18,8 km/h (3 Bft) 93,62 %
23.06.2017 14:06 26,2 C 30,0 C 28,9 C 61 % 0 lf 1014,5 hPa 0,0 l/m 2 min 0 min 625 W/m 20,9 km/h (4 Bft) 97,87 %
23.06.2017 14:08 26,2 C 30,0 C 29,4 C 60 % 0 lf 1014,5 hPa 0,0 l/m 2 min 0 min 606 W/m 18,8 km/h (3 Bft) 97,87 %
23.06.2017 14:10 26,2 C 30,0 C 30,0 C 59 % 0 lf 1014,6 hPa 0,0 l/m 2 min 0 min 947 W/m 23,0 km/h (4 Bft) 95,74 %
23.06.2017 14:12 26,2 C 28,9 C 28,9 C 59 % 0 lf 1014,5 hPa 0,0 l/m 2 min 0 min 616 W/m 20,9 km/h (4 Bft) 93,48 %
23.06.2017 14:14 26,2 C 27,8 C 28,3 C 59 % 0 lf 1014,7 hPa 0,0 l/m 2 min 0 min 606 W/m 29,3 km/h (5 Bft) 97,87 %
23.06.2017 14:16 26,1 C 28,3 C 28,9 C 59 % 0 lf 1014,6 hPa 0,0 l/m 2 min 0 min 793 W/m 23,0 km/h (4 Bft) 97,87 %
23.06.2017 14:18 26,0 C 28,9 C 30,0 C 59 % 0 lf 1014,7 hPa 0,0 l/m 2 min 0 min 1127 W/m 27,2 km/h (4 Bft) 97,87 %
23.06.2017 14:20 25,9 C 28,9 C 30,0 C 59 % 0 lf 1014,7 hPa 0,0 l/m 2 min 0 min 867 W/m 35,6 km/h (5 Bft) 97,87 %
23.06.2017 14:22 25,9 C 29,4 C 31,1 C 60 % 0 lf 1014,7 hPa 0,0 l/m 2 min 0 min 1090 W/m 29,3 km/h (5 Bft) 93,62 %
23.06.2017 14:24 25,8 C 30,0 C 31,1 C 60 % 0 lf 1014,8 hPa 0,0 l/m 2 min 0 min 1144 W/m 27,2 km/h (4 Bft) 95,65 %
23.06.2017 14:26 25,9 C 30,0 C 32,2 C 60 % 0 lf 1014,6 hPa 0,0 l/m 2 min 0 min 1167 W/m 29,3 km/h (5 Bft) 97,87 %
23.06.2017 14:28 25,8 C 30,0 C 31,7 C 60 % 0 lf 1014,6 hPa 0,0 l/m 2 min 0 min 1026 W/m 23,0 km/h (4 Bft) 100,00 %
23.06.2017 14:30 25,8 C 29,4 C 31,1 C 59 % 0 lf 1014,7 hPa 0,0 l/m 2 min 0 min 945 W/m 25,1 km/h (4 Bft) 100,00 %
23.06.2017 14:32 25,8 C 28,9 C 30,0 C 59 % 0 lf 1014,6 hPa 0,0 l/m 2 min 0 min 748 W/m 16,7 km/h (3 Bft) 97,87 %
23.06.2017 14:34 25,7 C 27,8 C 29,4 C 59 % 0 lf 1014,6 hPa 0,0 l/m 2 min 0 min 589 W/m 25,1 km/h (4 Bft) 95,74 %
23.06.2017 14:36 25,7 C 27,8 C 28,3 C 60 % 0 lf 1014,7 hPa 0,0 l/m 2 min 0 min 588 W/m 16,7 km/h (3 Bft) 97,83 %
23.06.2017 14:38 25,7 C 27,2 C 27,8 C 60 % 0 lf 1014,6 hPa 0,0 l/m 2 min 0 min 634 W/m 27,2 km/h (4 Bft) 100,00 %
23.06.2017 14:40 25,6 C 28,3 C 30,0 C 61 % 0 lf 1014,6 hPa 0,0 l/m 2 min 0 min 875 W/m 27,2 km/h (4 Bft) 97,87 %
23.06.2017 14:42 25,6 C 29,4 C 31,1 C 60 % 0 lf 1014,7 hPa 0,0 l/m 2 min 0 min 1086 W/m 27,2 km/h (4 Bft) 100,00 %
23.06.2017 14:44 25,7 C 29,4 C 31,1 C 59 % 0 lf 1014,5 hPa 0,0 l/m 2 min 0 min 1002 W/m 29,3 km/h (5 Bft) 97,87 %
23.06.2017 14:46 25,7 C 29,4 C 32,2 C 59 % 0 lf 1014,5 hPa 0,0 l/m 2 min 0 min 1066 W/m 25,1 km/h (4 Bft) 93,62 %
23.06.2017 14:48 25,7 C 28,3 C 31,1 C 58 % 0 lf 1014,7 hPa 0,0 l/m 2 min 0 min 1078 W/m 23,0 km/h (4 Bft) 97,83 %
23.06.2017 14:50 25,8 C 28,3 C 30,6 C 59 % 0 lf 1014,6 hPa 0,0 l/m 2 min 0 min 925 W/m 27,2 km/h (4 Bft) 95,74 %
23.06.2017 14:52 25,7 C 27,2 C 28,9 C 58 % 0 lf 1014,6 hPa 0,0 l/m 2 min 0 min 599 W/m 25,1 km/h (4 Bft) 97,87 %
23.06.2017 14:54 25,7 C 27,8 C 28,9 C 59 % 0 lf 1014,7 hPa 0,0 l/m 2 min 0 min 631 W/m 29,3 km/h (5 Bft) 97,87 %
23.06.2017 14:56 25,7 C 28,3 C 30,0 C 59 % 0 lf 1014,6 hPa 0,0 l/m 2 min 0 min 751 W/m 27,2 km/h (4 Bft) 97,87 %
23.06.2017 14:58 25,7 C 28,3 C 31,1 C 59 % 0 lf 1014,6 hPa 0,0 l/m 2 min 0 min 963 W/m 25,1 km/h (4 Bft) 93,62 %
23.06.2017 15:00 25,7 C 27,8 C 30,0 C 59 % 0 lf 1014,6 hPa 0,0 l/m 2 min 0 min 862 W/m 25,1 km/h (4 Bft) 97,83 %
23.06.2017 15:02 25,6 C 27,2 C 28,9 C 59 % 0 lf 1014,6 hPa 0,0 l/m 2 min 0 min 654 W/m 20,9 km/h (4 Bft) 97,87 %
23.06.2017 15:04 25,6 C 27,8 C 28,9 C 60 % 0 lf 1014,5 hPa 0,0 l/m 2 min 0 min 651 W/m 18,8 km/h (3 Bft) 97,87 %
23.06.2017 15:06 25,7 C 28,9 C 30,0 C 60 % 0 lf 1014,7 hPa 0,0 l/m 2 min 0 min 655 W/m 20,9 km/h (4 Bft) 97,14 %
23.06.2017 15:08 25,7 C 28,3 C 28,9 C 59 % 0 lf 1014,7 hPa 0,0 l/m 2 min 0 min 659 W/m 25,1 km/h (4 Bft) 97,87 %
23.06.2017 15:10 25,7 C 28,3 C 29,4 C 59 % 0 lf 1014,6 hPa 0,0 l/m 2 min 0 min 641 W/m 20,9 km/h (4 Bft) 97,87 %
23.06.2017 15:12 25,7 C 30,0 C 31,7 C 59 % 0 lf 1014,5 hPa 0,0 l/m 2 min 0 min 749 W/m 16,7 km/h (3 Bft) 97,87 %
23.06.2017 15:14 25,8 C 30,0 C 31,1 C 59 % 0 lf 1014,5 hPa 0,0 l/m 2 min 0 min 857 W/m 23,0 km/h (4 Bft) 97,83 %
23.06.2017 15:16 25,9 C 30,6 C 32,2 C 58 % 0 lf 1014,5 hPa 0,0 l/m 2 min 0 min 1130 W/m 18,8 km/h (3 Bft) 97,87 %
23.06.2017 15:18 26,1 C 31,1 C 33,9 C 59 % 0 lf 1014,5 hPa 0,0 l/m 2 min 0 min 852 W/m 25,1 km/h (4 Bft) 97,87 %
23.06.2017 15:20 26,2 C 31,1 C 35,0 C 57 % 0 lf 1014,6 hPa 0,0 l/m 2 min 0 min 850 W/m 27,2 km/h (4 Bft) 100,00 %
23.06.2017 15:22 26,3 C 30,6 C 33,9 C 56 % 0 lf 1014,5 hPa 0,0 l/m 2 min 0 min 848 W/m 25,1 km/h (4 Bft) 97,14 %
23.06.2017 15:24 26,4 C 29,4 C 32,8 C 57 % 0 lf 1014,5 hPa 0,0 l/m 2 min 0 min 846 W/m 25,1 km/h (4 Bft) 100,00 %
23.06.2017 15:26 26,4 C 29,4 C 32,8 C 56 % 0 lf 1014,5 hPa 0,0 l/m 2 min 0 min 846 W/m 25,1 km/h (4 Bft) 97,83 %
23.06.2017 15:28 26,4 C 29,4 C 33,9 C 56 % 0 lf 1014,5 hPa 0,0 l/m 2 min 0 min 953 W/m 33,5 km/h (5 Bft) 100,00 %
23.06.2017 15:30 26,4 C 30,6 C 35,0 C 55 % 0 lf 1014,5 hPa 0,0 l/m 2 min 0 min 1085 W/m 16,7 km/h (3 Bft) 97,87 %
23.06.2017 15:32 26,4 C 30,6 C 34,4 C 56 % 0 lf 1014,6 hPa 0,0 l/m 2 min 0 min 1053 W/m 29,3 km/h (5 Bft) 100,00 %
23.06.2017 15:34 26,6 C 31,1 C 35,0 C 55 % 0 lf 1014,5 hPa 0,0 l/m 2 min 0 min 1033 W/m 25,1 km/h (4 Bft) 100,00 %
23.06.2017 15:36 26,6 C 31,1 C 36,1 C 56 % 0 lf 1014,6 hPa 0,0 l/m 2 min 0 min 831 W/m 25,1 km/h (4 Bft) 100,00 %
23.06.2017 15:38 26,7 C 31,1 C 36,1 C 56 % 0 lf 1014,5 hPa 0,0 l/m 2 min 0 min 828 W/m 20,9 km/h (4 Bft) 100,00 %
23.06.2017 15:40 26,8 C 30,0 C 34,4 C 55 % 0 lf 1014,5 hPa 0,0 l/m 2 min 0 min 657 W/m 18,8 km/h (3 Bft) 100,00 %
23.06.2017 15:42 26,9 C 31,7 C 36,1 C 56 % 0 lf 1014,4 hPa 0,0 l/m 2 min 0 min 971 W/m 18,8 km/h (3 Bft) 100,00 %
23.06.2017 15:44 27,1 C 31,7 C 36,7 C 57 % 0 lf 1014,4 hPa 0,0 l/m 2 min 0 min 820 W/m 16,7 km/h (3 Bft) 100,00 %
23.06.2017 15:46 27,2 C 31,7 C 36,7 C 55 % 0 lf 1014,5 hPa 0,0 l/m 2 min 0 min 777 W/m 16,7 km/h (3 Bft) 97,87 %
23.06.2017 15:48 27,3 C 30,0 C 33,9 C 54 % 0 lf 1014,5 hPa 0,0 l/m 2 min 0 min 590 W/m 29,3 km/h (5 Bft) 95,74 %
23.06.2017 15:50 27,2 C 28,3 C 32,2 C 53 % 0 lf 1014,5 hPa 0,0 l/m 0 min 0 min 276 W/m 29,3 km/h (5 Bft) 97,87 %
23.06.2017 15:52 27,1 C 28,9 C 32,8 C 54 % 0 lf 1014,4 hPa 0,0 l/m 0 min 0 min 271 W/m 18,8 km/h (3 Bft) 97,83 %
23.06.2017 15:54 27,1 C 30,0 C 33,9 C 55 % 0 lf 1014,4 hPa 0,0 l/m 2 min 0 min 446 W/m 18,8 km/h (3 Bft) 97,92 %
23.06.2017 15:56 27,1 C 29,4 C 32,8 C 55 % 0 lf 1014,4 hPa 0,0 l/m 2 min 0 min 758 W/m 23,0 km/h (4 Bft) 97,92 %
23.06.2017 15:58 27,1 C 30,0 C 33,3 C 56 % 0 lf 1014,4 hPa 0,0 l/m 2 min 0 min 559 W/m 18,8 km/h (3 Bft) 100,00 %
23.06.2017 16:00 27,1 C 30,6 C 35,0 C 55 % 0 lf 1014,5 hPa 0,0 l/m 2 min 0 min 708 W/m 25,1 km/h (4 Bft) 95,74 %
23.06.2017 16:02 27,2 C 31,1 C 35,6 C 54 % 0 lf 1014,4 hPa 0,0 l/m 2 min 0 min 794 W/m 23,0 km/h (4 Bft) 95,65 %
23.06.2017 16:04 27,2 C 28,9 C 33,3 C 53 % 0 lf 1014,4 hPa 0,0 l/m 2 min 0 min 1012 W/m 31,4 km/h (5 Bft) 95,74 %
23.06.2017 16:06 27,1 C 28,9 C 32,2 C 53 % 0 lf 1014,4 hPa 0,0 l/m 2 min 0 min 487 W/m 25,1 km/h (4 Bft) 97,92 %
23.06.2017 16:08 27,1 C 28,3 C 31,7 C 53 % 0 lf 1014,4 hPa 0,0 l/m 2 min 0 min 480 W/m 23,0 km/h (4 Bft) 93,62 %
23.06.2017 16:10 27,0 C 27,8 C 30,0 C 53 % 0 lf 1014,4 hPa 0,0 l/m 2 min 0 min 472 W/m 29,3 km/h (5 Bft) 97,87 %
23.06.2017 16:12 26,9 C 28,3 C 31,1 C 54 % 0 lf 1014,5 hPa 0,0 l/m 2 min 0 min 510 W/m 25,1 km/h (4 Bft) 95,74 %
23.06.2017 16:14 26,9 C 29,4 C 33,9 C 54 % 0 lf 1014,4 hPa 0,0 l/m 2 min 0 min 732 W/m 27,2 km/h (4 Bft) 95,65 %
23.06.2017 16:16 26,9 C 29,4 C 35,6 C 54 % 0 lf 1014,4 hPa 0,0 l/m 2 min 0 min 999 W/m 23,0 km/h (4 Bft) 97,87 %
23.06.2017 16:18 27,0 C 30,0 C 36,7 C 55 % 0 lf 1014,4 hPa 0,0 l/m 2 min 0 min 970 W/m 20,9 km/h (4 Bft) 93,62 %
23.06.2017 16:20 27,1 C 28,9 C 36,1 C 53 % 0 lf 1014,4 hPa 0,0 l/m 2 min 0 min 979 W/m 29,3 km/h (5 Bft) 93,62 %
23.06.2017 16:22 27,1 C 28,3 C 36,1 C 53 % 0 lf 1014,4 hPa 0,0 l/m 2 min 0 min 978 W/m 27,2 km/h (4 Bft) 93,62 %
23.06.2017 16:24 27,1 C 28,9 C 36,7 C 54 % 0 lf 1014,5 hPa 0,0 l/m 2 min 0 min 971 W/m 20,9 km/h (4 Bft) 93,62 %
23.06.2017 16:26 27,2 C 29,4 C 37,8 C 54 % 0 lf 1014,5 hPa 0,0 l/m 2 min 0 min 932 W/m 25,1 km/h (4 Bft) 93,48 %
23.06.2017 16:28 27,2 C 28,9 C 37,2 C 53 % 0 lf 1014,4 hPa 0,0 l/m 2 min 0 min 954 W/m 20,9 km/h (4 Bft) 91,49 %
23.06.2017 16:30 27,3 C 28,3 C 36,7 C 53 % 0 lf 1014,4 hPa 0,0 l/m 2 min 0 min 891 W/m 23,0 km/h (4 Bft) 93,62 %
23.06.2017 16:32 27,3 C 28,3 C 36,1 C 53 % 0 lf 1014,4 hPa 0,0 l/m 2 min 0 min 824 W/m 16,7 km/h (3 Bft) 91,49 %
23.06.2017 16:34 27,4 C 28,9 C 36,1 C 54 % 0 lf 1014,4 hPa 0,0 l/m 2 min 0 min 849 W/m 14,6 km/h (3 Bft) 93,62 %
23.06.2017 16:36 27,4 C 28,9 C 36,1 C 52 % 0 lf 1014,3 hPa 0,0 l/m 2 min 0 min 924 W/m 25,1 km/h (4 Bft) 91,67 %
23.06.2017 16:38 27,4 C 28,3 C 34,4 C 52 % 0 lf 1014,4 hPa 0,0 l/m 2 min 0 min 734 W/m 27,2 km/h (4 Bft) 93,48 %
23.06.2017 16:40 27,4 C 28,3 C 35,0 C 52 % 0 lf 1014,3 hPa 0,0 l/m 2 min 0 min 817 W/m 14,6 km/h (3 Bft) 93,62 %
23.06.2017 16:42 27,5 C 28,3 C 36,1 C 53 % 0 lf 1014,2 hPa 0,0 l/m 2 min 0 min 740 W/m 20,9 km/h (4 Bft) 95,74 %
23.06.2017 16:44 27,5 C 28,9 C 36,1 C 53 % 0 lf 1014,2 hPa 0,0 l/m 2 min 0 min 741 W/m 27,2 km/h (4 Bft) 93,62 %
23.06.2017 16:46 27,5 C 27,8 C 35,6 C 52 % 0 lf 1014,3 hPa 0,0 l/m 2 min 0 min 727 W/m 25,1 km/h (4 Bft) 95,74 %
23.06.2017 16:48 27,4 C 27,8 C 35,6 C 52 % 0 lf 1014,4 hPa 0,0 l/m 2 min 0 min 696 W/m 27,2 km/h (4 Bft) 91,30 %
23.06.2017 16:50 27,4 C 28,3 C 36,1 C 52 % 0 lf 1014,3 hPa 0,0 l/m 2 min 0 min 722 W/m 23,0 km/h (4 Bft) 93,62 %
23.06.2017 16:52 27,4 C 28,3 C 35,6 C 52 % 0 lf 1014,4 hPa 0,0 l/m 2 min 0 min 798 W/m 35,6 km/h (5 Bft) 93,62 %
23.06.2017 16:54 27,4 C 28,3 C 35,0 C 51 % 0 lf 1014,4 hPa 0,0 l/m 2 min 0 min 802 W/m 25,1 km/h (4 Bft) 91,49 %
23.06.2017 16:56 27,3 C 28,3 C 34,4 C 51 % 0 lf 1014,3 hPa 0,0 l/m 2 min 0 min 802 W/m 25,1 km/h (4 Bft) 93,62 %
23.06.2017 16:58 27,3 C 27,8 C 31,7 C 51 % 0 lf 1014,3 hPa 0,0 l/m 2 min 0 min 422 W/m 18,8 km/h (3 Bft) 93,62 %
23.06.2017 17:00 27,2 C 27,2 C 30,0 C 52 % 0 lf 1014,3 hPa 0,0 l/m 0 min 0 min 245 W/m 27,2 km/h (4 Bft) 93,48 %
23.06.2017 17:02 27,0 C 27,2 C 31,1 C 52 % 0 lf 1014,4 hPa 0,0 l/m 2 min 0 min 500 W/m 29,3 km/h (5 Bft) 93,62 %
23.06.2017 17:04 26,9 C 27,8 C 32,2 C 52 % 0 lf 1014,4 hPa 0,0 l/m 2 min 0 min 751 W/m 31,4 km/h (5 Bft) 95,74 %
23.06.2017 17:06 26,9 C 27,2 C 30,6 C 53 % 0 lf 1014,4 hPa 0,0 l/m 2 min 0 min 553 W/m 31,4 km/h (5 Bft) 95,74 %
23.06.2017 17:08 26,8 C 27,2 C 30,6 C 52 % 0 lf 1014,3 hPa 0,0 l/m 0 min 0 min 258 W/m 23,0 km/h (4 Bft) 95,83 %
23.06.2017 17:10 26,7 C 27,2 C 30,0 C 53 % 0 lf 1014,4 hPa 0,0 l/m 0 min 0 min 252 W/m 14,6 km/h (3 Bft) 95,74 %
23.06.2017 17:12 26,7 C 27,2 C 29,4 C 54 % 0 lf 1014,3 hPa 0,0 l/m 0 min 0 min 253 W/m 31,4 km/h (5 Bft) 97,83 %
23.06.2017 17:14 26,6 C 26,7 C 28,9 C 53 % 0 lf 1014,3 hPa 0,0 l/m 0 min 0 min 295 W/m 33,5 km/h (5 Bft) 97,87 %
23.06.2017 17:16 26,5 C 27,2 C 28,3 C 54 % 0 lf 1014,3 hPa 0,0 l/m 0 min 0 min 255 W/m 25,1 km/h (4 Bft) 97,87 %
23.06.2017 17:18 26,4 C 27,2 C 29,4 C 55 % 0 lf 1014,2 hPa 0,0 l/m 2 min 0 min 444 W/m 27,2 km/h (4 Bft) 95,74 %
23.06.2017 17:20 26,4 C 27,8 C 30,0 C 55 % 0 lf 1014,3 hPa 0,0 l/m 2 min 0 min 691 W/m 27,2 km/h (4 Bft) 100,00 %
23.06.2017 17:22 26,4 C 27,8 C 30,0 C 55 % 0 lf 1014,3 hPa 0,0 l/m 2 min 0 min 632 W/m 18,8 km/h (3 Bft) 100,00 %
23.06.2017 17:24 26,4 C 27,8 C 30,0 C 55 % 0 lf 1014,3 hPa 0,0 l/m 2 min 0 min 611 W/m 20,9 km/h (4 Bft) 100,00 %
23.06.2017 17:26 26,4 C 27,8 C 28,9 C 55 % 0 lf 1014,3 hPa 0,0 l/m 2 min 0 min 390 W/m 14,6 km/h (3 Bft) 100,00 %
23.06.2017 17:28 26,4 C 27,2 C 27,8 C 55 % 0 lf 1014,3 hPa 0,0 l/m 0 min 0 min 217 W/m 18,8 km/h (3 Bft) 100,00 %
23.06.2017 17:30 26,4 C 27,2 C 27,8 C 55 % 0 lf 1014,3 hPa 0,0 l/m 0 min 0 min 226 W/m 27,2 km/h (4 Bft) 97,87 %
23.06.2017 17:32 26,4 C 27,8 C 27,8 C 55 % 0 lf 1014,3 hPa 0,0 l/m 2 min 0 min 637 W/m 20,9 km/h (4 Bft) 100,00 %
23.06.2017 17:34 26,5 C 28,3 C 28,3 C 55 % 0 lf 1014,2 hPa 0,0 l/m 2 min 0 min 661 W/m 16,7 km/h (3 Bft) 95,74 %
23.06.2017 17:36 26,5 C 27,8 C 27,8 C 55 % 0 lf 1014,2 hPa 0,0 l/m 2 min 0 min 635 W/m 31,4 km/h (5 Bft) 97,87 %
23.06.2017 17:38 26,5 C 27,8 C 27,8 C 55 % 0 lf 1014,1 hPa 0,0 l/m 2 min 0 min 617 W/m 20,9 km/h (4 Bft) 100,00 %
23.06.2017 17:40 26,6 C 27,8 C 27,8 C 54 % 0 lf 1014,2 hPa 0,0 l/m 2 min 0 min 590 W/m 23,0 km/h (4 Bft) 100,00 %
23.06.2017 17:42 26,6 C 27,2 C 27,8 C 54 % 0 lf 1014,2 hPa 0,0 l/m 2 min 0 min 580 W/m 29,3 km/h (5 Bft) 97,87 %
23.06.2017 17:44 26,6 C 27,2 C 27,2 C 54 % 0 lf 1014,2 hPa 0,0 l/m 2 min 0 min 566 W/m 31,4 km/h (5 Bft) 100,00 %
23.06.2017 17:46 26,6 C 27,2 C 27,2 C 54 % 0 lf 1014,2 hPa 0,0 l/m 2 min 0 min 580 W/m 27,2 km/h (4 Bft) 100,00 %
23.06.2017 17:48 26,5 C 27,2 C 26,7 C 54 % 0 lf 1014,1 hPa 0,0 l/m 2 min 0 min 528 W/m 25,1 km/h (4 Bft) 100,00 %
23.06.2017 17:50 26,5 C 27,2 C 26,7 C 54 % 0 lf 1014,2 hPa 0,0 l/m 2 min 0 min 537 W/m 25,1 km/h (4 Bft) 100,00 %
23.06.2017 17:52 26,5 C 27,2 C 26,7 C 54 % 0 lf 1014,2 hPa 0,0 l/m 2 min 0 min 535 W/m 23,0 km/h (4 Bft) 100,00 %
23.06.2017 17:54 26,5 C 26,7 C 26,7 C 54 % 0 lf 1014,3 hPa 0,0 l/m 2 min 0 min 524 W/m 25,1 km/h (4 Bft) 100,00 %
23.06.2017 17:56 26,4 C 26,7 C 26,7 C 54 % 0 lf 1014,3 hPa 0,0 l/m 2 min 0 min 524 W/m 18,8 km/h (3 Bft) 100,00 %
23.06.2017 17:58 26,4 C 26,7 C 26,1 C 54 % 0 lf 1014,3 hPa 0,0 l/m 2 min 0 min 378 W/m 18,8 km/h (3 Bft) 100,00 %
23.06.2017 18:00 26,3 C 26,7 C 26,1 C 54 % 0 lf 1014,2 hPa 0,0 l/m 2 min 0 min 344 W/m 16,7 km/h (3 Bft) 97,87 %
23.06.2017 18:02 26,3 C 26,7 C 26,1 C 54 % 0 lf 1014,2 hPa 0,0 l/m 2 min 0 min 335 W/m 25,1 km/h (4 Bft) 100,00 %
23.06.2017 18:04 26,3 C 26,7 C 26,1 C 55 % 0 lf 1014,2 hPa 0,0 l/m 2 min 0 min 290 W/m 25,1 km/h (4 Bft) 95,74 %
23.06.2017 18:06 26,2 C 26,7 C 26,1 C 55 % 0 lf 1014,2 hPa 0,0 l/m 2 min 0 min 295 W/m 23,0 km/h (4 Bft) 97,56 %
23.06.2017 18:08 26,2 C 26,1 C 26,1 C 55 % 0 lf 1014,3 hPa 0,0 l/m 2 min 0 min 298 W/m 23,0 km/h (4 Bft) 100,00 %
23.06.2017 18:10 26,1 C 26,1 C 26,1 C 54 % 0 lf 1014,4 hPa 0,0 l/m 2 min 0 min 319 W/m 29,3 km/h (5 Bft) 97,87 %
23.06.2017 18:12 26,0 C 26,1 C 25,6 C 54 % 0 lf 1014,3 hPa 0,0 l/m 2 min 0 min 402 W/m 27,2 km/h (4 Bft) 97,83 %
23.06.2017 18:14 25,9 C 26,1 C 25,6 C 54 % 0 lf 1014,3 hPa 0,0 l/m 2 min 0 min 397 W/m 25,1 km/h (4 Bft) 100,00 %
23.06.2017 18:16 25,8 C 26,1 C 25,6 C 55 % 0 lf 1014,2 hPa 0,0 l/m 2 min 0 min 381 W/m 18,8 km/h (3 Bft) 100,00 %
23.06.2017 18:18 25,8 C 26,1 C 25,6 C 55 % 0 lf 1014,3 hPa 0,0 l/m 2 min 0 min 366 W/m 25,1 km/h (4 Bft) 100,00 %
23.06.2017 18:20 25,8 C 26,1 C 25,6 C 55 % 0 lf 1014,3 hPa 0,0 l/m 2 min 0 min 335 W/m 23,0 km/h (4 Bft) 100,00 %
23.06.2017 18:22 25,7 C 26,1 C 25,6 C 55 % 0 lf 1014,3 hPa 0,0 l/m 2 min 0 min 412 W/m 29,3 km/h (5 Bft) 97,22 %
23.06.2017 18:24 25,7 C 26,1 C 25,6 C 54 % 0 lf 1014,3 hPa 0,0 l/m 2 min 0 min 445 W/m 25,1 km/h (4 Bft) 97,83 %
23.06.2017 18:26 25,6 C 26,1 C 25,6 C 54 % 0 lf 1014,3 hPa 0,0 l/m 2 min 0 min 464 W/m 27,2 km/h (4 Bft) 97,87 %
23.06.2017 18:28 25,6 C 26,1 C 25,6 C 55 % 0 lf 1014,3 hPa 0,0 l/m 2 min 0 min 494 W/m 29,3 km/h (5 Bft) 100,00 %
23.06.2017 18:30 25,6 C 26,1 C 25,6 C 55 % 0 lf 1014,2 hPa 0,0 l/m 2 min 0 min 425 W/m 29,3 km/h (5 Bft) 100,00 %
23.06.2017 18:32 25,6 C 26,1 C 25,6 C 55 % 0 lf 1014,1 hPa 0,0 l/m 2 min 0 min 394 W/m 18,8 km/h (3 Bft) 100,00 %
23.06.2017 18:34 25,6 C 26,7 C 25,6 C 56 % 0 lf 1014,2 hPa 0,0 l/m 2 min 0 min 430 W/m 16,7 km/h (3 Bft) 100,00 %
23.06.2017 18:36 25,6 C 26,1 C 25,6 C 56 % 0 lf 1014,2 hPa 0,0 l/m 2 min 0 min 322 W/m 14,6 km/h (3 Bft) 96,00 %
23.06.2017 18:38 25,6 C 26,1 C 25,6 C 55 % 0 lf 1014,1 hPa 0,0 l/m 2 min 0 min 225 W/m 18,8 km/h (3 Bft) 95,74 %
23.06.2017 18:40 25,6 C 26,1 C 25,6 C 56 % 0 lf 1014,2 hPa 0,0 l/m 0 min 0 min 206 W/m 20,9 km/h (4 Bft) 97,87 %
23.06.2017 18:42 25,6 C 25,6 C 25,0 C 55 % 0 lf 1014,1 hPa 0,0 l/m 0 min 0 min 162 W/m 23,0 km/h (4 Bft) 97,87 %
23.06.2017 18:44 25,5 C 25,6 C 25,0 C 55 % 0 lf 1014,1 hPa 0,0 l/m 0 min 0 min 155 W/m 23,0 km/h (4 Bft) 95,74 %
23.06.2017 18:46 25,4 C 25,6 C 24,4 C 55 % 0 lf 1014,2 hPa 0,0 l/m 0 min 0 min 167 W/m 14,6 km/h (3 Bft) 100,00 %
23.06.2017 18:48 25,4 C 25,0 C 24,4 C 55 % 0 lf 1014,2 hPa 0,0 l/m 0 min 0 min 196 W/m 23,0 km/h (4 Bft) 97,87 %
23.06.2017 18:50 25,3 C 25,0 C 24,4 C 56 % 0 lf 1014,2 hPa 0,0 l/m 0 min 0 min 201 W/m 29,3 km/h (5 Bft) 97,87 %
23.06.2017 18:52 25,3 C 25,0 C 24,4 C 56 % 0 lf 1014,2 hPa 0,0 l/m 0 min 0 min 195 W/m 18,8 km/h (3 Bft) 95,83 %
23.06.2017 18:54 25,2 C 25,0 C 25,0 C 56 % 0 lf 1014,2 hPa 0,0 l/m 0 min 0 min 196 W/m 12,6 km/h (3 Bft) 91,30 %
23.06.2017 18:56 25,2 C 25,0 C 24,4 C 56 % 0 lf 1014,2 hPa 0,0 l/m 2 min 0 min 200 W/m 29,3 km/h (5 Bft) 96,00 %
23.06.2017 18:58 25,1 C 25,0 C 24,4 C 56 % 0 lf 1014,2 hPa 0,0 l/m 2 min 0 min 216 W/m 16,7 km/h (3 Bft) 97,83 %
23.06.2017 19:00 25,1 C 25,6 C 25,0 C 57 % 0 lf 1014,2 hPa 0,0 l/m 2 min 0 min 249 W/m 18,8 km/h (3 Bft) 95,74 %
23.06.2017 19:02 25,1 C 25,6 C 25,0 C 56 % 0 lf 1014,2 hPa 0,0 l/m 2 min 0 min 279 W/m 23,0 km/h (4 Bft) 89,36 %
23.06.2017 19:04 25,1 C 25,6 C 25,0 C 56 % 0 lf 1014,2 hPa 0,0 l/m 2 min 0 min 373 W/m 16,7 km/h (3 Bft) 93,62 %
23.06.2017 19:06 25,1 C 25,6 C 25,0 C 56 % 0 lf 1014,2 hPa 0,0 l/m 2 min 0 min 370 W/m 20,9 km/h (4 Bft) 89,36 %
23.06.2017 19:08 25,1 C 25,6 C 25,0 C 56 % 0 lf 1014,1 hPa 0,0 l/m 2 min 0 min 390 W/m 18,8 km/h (3 Bft) 93,62 %
23.06.2017 19:10 25,1 C 26,1 C 25,6 C 56 % 0 lf 1014,1 hPa 0,0 l/m 2 min 0 min 331 W/m 23,0 km/h (4 Bft) 93,48 %
23.06.2017 19:12 25,1 C 26,1 C 25,6 C 56 % 0 lf 1014,2 hPa 0,0 l/m 2 min 0 min 329 W/m 16,7 km/h (3 Bft) 87,23 %
23.06.2017 19:14 25,2 C 26,1 C 25,6 C 56 % 0 lf 1014,2 hPa 0,0 l/m 2 min 0 min 301 W/m 16,7 km/h (3 Bft) 93,62 %
23.06.2017 19:16 25,2 C 25,6 C 25,0 C 56 % 0 lf 1014,3 hPa 0,0 l/m 2 min 0 min 275 W/m 18,8 km/h (3 Bft) 93,62 %
23.06.2017 19:18 25,2 C 26,1 C 25,0 C 56 % 0 lf 1014,2 hPa 0,0 l/m 2 min 0 min 346 W/m 16,7 km/h (3 Bft) 91,49 %
23.06.2017 19:20 25,2 C 25,6 C 25,0 C 55 % 0 lf 1014,2 hPa 0,0 l/m 2 min 0 min 356 W/m 25,1 km/h (4 Bft) 95,65 %
23.06.2017 19:22 25,2 C 25,6 C 25,0 C 56 % 0 lf 1014,2 hPa 0,0 l/m 2 min 0 min 302 W/m 18,8 km/h (3 Bft) 89,36 %
23.06.2017 19:24 25,2 C 26,1 C 25,0 C 56 % 0 lf 1014,2 hPa 0,0 l/m 2 min 0 min 315 W/m 18,8 km/h (3 Bft) 93,62 %
23.06.2017 19:26 25,2 C 26,1 C 25,0 C 56 % 0 lf 1014,1 hPa 0,0 l/m 2 min 0 min 333 W/m 20,9 km/h (4 Bft) 95,74 %
23.06.2017 19:28 25,2 C 26,1 C 24,4 C 55 % 0 lf 1014,3 hPa 0,0 l/m 2 min 0 min 314 W/m 23,0 km/h (4 Bft) 95,74 %
23.06.2017 19:30 25,2 C 25,6 C 24,4 C 54 % 0 lf 1014,3 hPa 0,0 l/m 2 min 0 min 301 W/m 20,9 km/h (4 Bft) 91,49 %
23.06.2017 19:32 25,2 C 25,6 C 24,4 C 55 % 0 lf 1014,2 hPa 0,0 l/m 2 min 0 min 275 W/m 18,8 km/h (3 Bft) 95,65 %
23.06.2017 19:34 25,2 C 25,6 C 24,4 C 55 % 0 lf 1014,3 hPa 0,0 l/m 2 min 0 min 267 W/m 12,6 km/h (3 Bft) 93,62 %
23.06.2017 19:36 25,2 C 25,6 C 24,4 C 55 % 0 lf 1014,3 hPa 0,0 l/m 2 min 0 min 264 W/m 25,1 km/h (4 Bft) 95,74 %
23.06.2017 19:38 25,2 C 25,6 C 24,4 C 54 % 0 lf 1014,2 hPa 0,0 l/m 2 min 0 min 252 W/m 23,0 km/h (4 Bft) 93,62 %
23.06.2017 19:40 25,2 C 25,6 C 24,4 C 55 % 0 lf 1014,3 hPa 0,0 l/m 2 min 0 min 254 W/m 29,3 km/h (5 Bft) 93,62 %
23.06.2017 19:42 25,2 C 25,6 C 23,9 C 54 % 0 lf 1014,3 hPa 0,0 l/m 2 min 0 min 255 W/m 23,0 km/h (4 Bft) 95,74 %
23.06.2017 19:44 25,2 C 25,6 C 23,9 C 55 % 0 lf 1014,3 hPa 0,0 l/m 2 min 0 min 247 W/m 20,9 km/h (4 Bft) 95,65 %
23.06.2017 19:46 25,1 C 25,0 C 23,9 C 55 % 0 lf 1014,3 hPa 0,0 l/m 2 min 0 min 243 W/m 25,1 km/h (4 Bft) 93,62 %
23.06.2017 19:48 25,1 C 25,0 C 23,9 C 55 % 0 lf 1014,3 hPa 0,0 l/m 2 min 0 min 233 W/m 27,2 km/h (4 Bft) 95,74 %
23.06.2017 19:50 25,1 C 25,0 C 23,9 C 55 % 0 lf 1014,3 hPa 0,0 l/m 2 min 0 min 227 W/m 23,0 km/h (4 Bft) 93,62 %
23.06.2017 19:52 25,1 C 25,0 C 23,9 C 55 % 0 lf 1014,3 hPa 0,0 l/m 2 min 0 min 223 W/m 14,6 km/h (3 Bft) 95,74 %
23.06.2017 19:54 25,1 C 25,0 C 23,9 C 56 % 0 lf 1014,3 hPa 0,0 l/m 2 min 0 min 218 W/m 12,6 km/h (3 Bft) 95,74 %
23.06.2017 19:56 25,1 C 25,0 C 23,3 C 55 % 0 lf 1014,3 hPa 0,0 l/m 2 min 0 min 207 W/m 20,9 km/h (4 Bft) 95,65 %
23.06.2017 19:58 25,1 C 25,0 C 23,3 C 55 % 0 lf 1014,3 hPa 0,0 l/m 2 min 0 min 202 W/m 16,7 km/h (3 Bft) 93,62 %
23.06.2017 20:00 25,1 C 25,0 C 23,3 C 56 % 0 lf 1014,4 hPa 0,0 l/m 2 min 0 min 189 W/m 20,9 km/h (4 Bft) 97,87 %
23.06.2017 20:02 25,0 C 25,0 C 23,3 C 55 % 0 lf 1014,4 hPa 0,0 l/m 2 min 0 min 187 W/m 31,4 km/h (5 Bft) 95,74 %
23.06.2017 20:04 24,9 C 25,0 C 23,3 C 55 % 0 lf 1014,3 hPa 0,0 l/m 2 min 0 min 178 W/m 29,3 km/h (5 Bft) 97,87 %
23.06.2017 20:06 24,9 C 25,0 C 23,3 C 55 % 0 lf 1014,3 hPa 0,0 l/m 2 min 0 min 166 W/m 16,7 km/h (3 Bft) 97,87 %
23.06.2017 20:08 24,9 C 24,4 C 23,3 C 55 % 0 lf 1014,4 hPa 0,0 l/m 2 min 0 min 159 W/m 27,2 km/h (4 Bft) 93,48 %
23.06.2017 20:10 24,9 C 24,4 C 23,3 C 55 % 0 lf 1014,4 hPa 0,0 l/m 2 min 0 min 147 W/m 20,9 km/h (4 Bft) 93,62 %
23.06.2017 20:12 24,8 C 24,4 C 23,3 C 55 % 0 lf 1014,4 hPa 0,0 l/m 2 min 0 min 137 W/m 25,1 km/h (4 Bft) 95,74 %
23.06.2017 20:14 24,8 C 24,4 C 22,8 C 55 % 0 lf 1014,4 hPa 0,0 l/m 2 min 0 min 133 W/m 29,3 km/h (5 Bft) 97,87 %
23.06.2017 20:16 24,7 C 24,4 C 22,8 C 55 % 0 lf 1014,4 hPa 0,0 l/m 2 min 0 min 110 W/m 20,9 km/h (4 Bft) 95,74 %
23.06.2017 20:18 24,7 C 24,4 C 22,8 C 56 % 0 lf 1014,4 hPa 0,0 l/m 2 min 0 min 106 W/m 20,9 km/h (4 Bft) 93,62 %
23.06.2017 20:20 24,6 C 24,4 C 22,8 C 56 % 0 lf 1014,4 hPa 0,0 l/m 2 min 0 min 119 W/m 14,6 km/h (3 Bft) 95,65 %
23.06.2017 20:22 24,6 C 24,4 C 22,8 C 56 % 0 lf 1014,4 hPa 0,0 l/m 2 min 0 min 127 W/m 12,6 km/h (3 Bft) 97,22 %
23.06.2017 20:24 24,6 C 23,9 C 22,8 C 56 % 0 lf 1014,4 hPa 0,0 l/m 2 min 0 min 93 W/m 16,7 km/h (3 Bft) 97,87 %
23.06.2017 20:26 24,5 C 23,9 C 22,8 C 56 % 0 lf 1014,4 hPa 0,0 l/m 0 min 0 min 65 W/m 12,6 km/h (3 Bft) 97,87 %
23.06.2017 20:28 24,5 C 23,9 C 22,8 C 56 % 0 lf 1014,4 hPa 0,0 l/m 0 min 0 min 53 W/m 16,7 km/h (3 Bft) 97,87 %
23.06.2017 20:30 24,4 C 23,9 C 22,2 C 56 % 0 lf 1014,5 hPa 0,0 l/m 0 min 0 min 68 W/m 18,8 km/h (3 Bft) 97,83 %
23.06.2017 20:32 24,3 C 23,9 C 22,2 C 56 % 0 lf 1014,5 hPa 0,0 l/m 2 min 0 min 96 W/m 20,9 km/h (4 Bft) 97,87 %
23.06.2017 20:34 24,3 C 23,9 C 22,2 C 56 % 0 lf 1014,5 hPa 0,0 l/m 2 min 0 min 99 W/m 16,7 km/h (3 Bft) 97,87 %
23.06.2017 20:36 24,3 C 23,9 C 22,2 C 56 % 0 lf 1014,5 hPa 0,0 l/m 2 min 0 min 98 W/m 12,6 km/h (3 Bft) 100,00 %
23.06.2017 20:38 24,2 C 23,9 C 22,2 C 56 % 0 lf 1014,5 hPa 0,0 l/m 2 min 0 min 96 W/m 20,9 km/h (4 Bft) 100,00 %
23.06.2017 20:40 24,2 C 23,9 C 22,2 C 56 % 0 lf 1014,5 hPa 0,0 l/m 2 min 0 min 90 W/m 12,6 km/h (3 Bft) 100,00 %
23.06.2017 20:42 24,1 C 23,9 C 22,2 C 56 % 0 lf 1014,5 hPa 0,0 l/m 2 min 0 min 86 W/m 14,6 km/h (3 Bft) 97,83 %
23.06.2017 20:44 24,1 C 23,3 C 22,2 C 56 % 0 lf 1014,5 hPa 0,0 l/m 2 min 0 min 82 W/m 20,9 km/h (4 Bft) 100,00 %
23.06.2017 20:46 24,1 C 23,3 C 22,2 C 56 % 0 lf 1014,4 hPa 0,0 l/m 2 min 0 min 77 W/m 18,8 km/h (3 Bft) 100,00 %
23.06.2017 20:48 24,0 C 23,3 C 22,2 C 56 % 0 lf 1014,5 hPa 0,0 l/m 2 min 0 min 72 W/m 20,9 km/h (4 Bft) 97,87 %
23.06.2017 20:50 23,9 C 23,3 C 21,7 C 56 % 0 lf 1014,6 hPa 0,0 l/m 2 min 0 min 69 W/m 18,8 km/h (3 Bft) 100,00 %
23.06.2017 20:52 23,8 C 23,3 C 21,7 C 56 % 0 lf 1014,5 hPa 0,0 l/m 2 min 0 min 66 W/m 20,9 km/h (4 Bft) 100,00 %
23.06.2017 20:54 23,8 C 23,3 C 21,7 C 56 % 0 lf 1014,6 hPa 0,0 l/m 2 min 0 min 62 W/m 23,0 km/h (4 Bft) 100,00 %
23.06.2017 20:56 23,7 C 23,3 C 21,7 C 57 % 0 lf 1014,5 hPa 0,0 l/m 2 min 0 min 59 W/m 23,0 km/h (4 Bft) 97,87 %
23.06.2017 20:58 23,7 C 23,3 C 21,7 C 57 % 0 lf 1014,5 hPa 0,0 l/m 2 min 0 min 54 W/m 14,6 km/h (3 Bft) 95,74 %
23.06.2017 21:00 23,6 C 23,3 C 21,7 C 57 % 0 lf 1014,6 hPa 0,0 l/m 2 min 0 min 51 W/m 14,6 km/h (3 Bft) 93,62 %
23.06.2017 21:02 23,6 C 23,3 C 21,7 C 57 % 0 lf 1014,5 hPa 0,0 l/m 0 min 0 min 44 W/m 16,7 km/h (3 Bft) 97,87 %
23.06.2017 21:04 23,6 C 22,8 C 21,7 C 57 % 0 lf 1014,5 hPa 0,0 l/m 0 min 0 min 44 W/m 14,6 km/h (3 Bft) 93,62 %
23.06.2017 21:06 23,5 C 22,8 C 21,1 C 58 % 0 lf 1014,5 hPa 0,0 l/m 0 min 0 min 42 W/m 18,8 km/h (3 Bft) 95,65 %
23.06.2017 21:08 23,4 C 22,8 C 21,1 C 58 % 0 lf 1014,6 hPa 0,0 l/m 0 min 0 min 36 W/m 14,6 km/h (3 Bft) 97,87 %
23.06.2017 21:10 23,4 C 22,8 C 21,1 C 58 % 0 lf 1014,6 hPa 0,0 l/m 0 min 0 min 32 W/m 12,6 km/h (3 Bft) 97,87 %
23.06.2017 21:12 23,4 C 22,8 C 21,1 C 58 % 0 lf 1014,6 hPa 0,0 l/m 0 min 0 min 29 W/m 16,7 km/h (3 Bft) 91,49 %
23.06.2017 21:14 23,3 C 22,8 C 21,1 C 58 % 0 lf 1014,6 hPa 0,0 l/m 0 min 0 min 28 W/m 14,6 km/h (3 Bft) 97,87 %
23.06.2017 21:16 23,3 C 22,8 C 21,1 C 58 % 0 lf 1014,6 hPa 0,0 l/m 0 min 0 min 26 W/m 20,9 km/h (4 Bft) 97,87 %
23.06.2017 21:18 23,2 C 22,8 C 21,1 C 58 % 0 lf 1014,6 hPa 0,0 l/m 0 min 0 min 25 W/m 18,8 km/h (3 Bft) 97,83 %
23.06.2017 21:20 23,2 C 22,8 C 21,1 C 58 % 0 lf 1014,7 hPa 0,0 l/m 0 min 0 min 25 W/m 16,7 km/h (3 Bft) 94,92 %
23.06.2017 21:22 23,1 C 22,2 C 21,1 C 59 % 0 lf 1014,6 hPa 0,0 l/m 0 min 0 min 24 W/m 14,6 km/h (3 Bft) 97,14 %
23.06.2017 21:24 23,1 C 22,2 C 20,6 C 59 % 0 lf 1014,6 hPa 0,0 l/m 0 min 0 min 21 W/m 12,6 km/h (3 Bft) 97,87 %
23.06.2017 21:26 23,0 C 22,2 C 20,6 C 59 % 0 lf 1014,7 hPa 0,0 l/m 2 min 0 min 23 W/m 16,7 km/h (3 Bft) 95,74 %
23.06.2017 21:28 23,0 C 22,2 C 20,6 C 59 % 0 lf 1014,8 hPa 0,0 l/m 2 min 0 min 23 W/m 18,8 km/h (3 Bft) 100,00 %
23.06.2017 21:30 22,9 C 22,2 C 20,6 C 59 % 0 lf 1014,7 hPa 0,0 l/m 2 min 0 min 21 W/m 16,7 km/h (3 Bft) 95,74 %
23.06.2017 21:32 22,9 C 22,2 C 20,6 C 59 % 0 lf 1014,8 hPa 0,0 l/m 2 min 0 min 20 W/m 16,7 km/h (3 Bft) 100,00 %
23.06.2017 21:34 22,8 C 22,2 C 20,6 C 59 % 0 lf 1014,8 hPa 0,0 l/m 0 min 0 min 17 W/m 14,6 km/h (3 Bft) 97,87 %
23.06.2017 21:36 22,8 C 22,2 C 20,6 C 59 % 0 lf 1014,8 hPa 0,0 l/m 0 min 0 min 17 W/m 16,7 km/h (3 Bft) 97,87 %
23.06.2017 21:38 22,7 C 22,2 C 20,6 C 59 % 0 lf 1014,9 hPa 0,0 l/m 0 min 0 min 19 W/m 18,8 km/h (3 Bft) 95,74 %
23.06.2017 21:40 22,7 C 22,2 C 20,6 C 60 % 0 lf 1014,8 hPa 0,0 l/m 0 min 0 min 17 W/m 12,6 km/h (3 Bft) 95,65 %
23.06.2017 21:42 22,7 C 21,7 C 20,0 C 60 % 0 lf 1014,9 hPa 0,0 l/m 0 min 0 min 13 W/m 14,6 km/h (3 Bft) 95,74 %
23.06.2017 21:44 22,6 C 21,7 C 20,0 C 60 % 0 lf 1014,9 hPa 0,0 l/m 0 min 0 min 11 W/m 16,7 km/h (3 Bft) 97,87 %
23.06.2017 21:46 22,5 C 21,7 C 20,0 C 60 % 0 lf 1014,9 hPa 0,0 l/m 0 min 0 min 10 W/m 16,7 km/h (3 Bft) 91,49 %
23.06.2017 21:48 22,4 C 21,7 C 20,0 C 60 % 0 lf 1014,8 hPa 0,0 l/m 0 min 0 min 9 W/m 18,8 km/h (3 Bft) 95,74 %
23.06.2017 21:50 22,4 C 21,7 C 20,0 C 60 % 0 lf 1014,8 hPa 0,0 l/m 0 min 0 min 7 W/m 12,6 km/h (3 Bft) 96,55 %
23.06.2017 21:52 22,4 C 21,7 C 20,0 C 60 % 0 lf 1014,9 hPa 0,0 l/m 0 min 0 min 7 W/m 18,8 km/h (3 Bft) 94,29 %
23.06.2017 21:54 22,3 C 21,7 C 20,0 C 61 % 0 lf 1014,8 hPa 0,0 l/m 0 min 0 min 5 W/m 12,6 km/h (3 Bft) 97,87 %
23.06.2017 21:56 22,3 C 21,1 C 20,0 C 61 % 0 lf 1014,9 hPa 0,0 l/m 0 min 0 min 4 W/m 16,7 km/h (3 Bft) 95,74 %
23.06.2017 21:58 22,2 C 21,1 C 20,0 C 61 % 0 lf 1014,9 hPa 0,0 l/m 0 min 0 min 0 W/m 14,6 km/h (3 Bft) 97,87 %
23.06.2017 22:00 22,2 C 21,1 C 19,4 C 61 % 0 lf 1014,9 hPa 0,0 l/m 0 min 0 min 0 W/m 12,6 km/h (3 Bft) 95,74 %
23.06.2017 22:02 22,2 C 21,1 C 19,4 C 61 % 0 lf 1014,9 hPa 0,0 l/m 0 min 0 min 0 W/m 12,6 km/h (3 Bft) 97,87 %
23.06.2017 22:04 22,1 C 21,1 C 19,4 C 61 % 0 lf 1015,0 hPa 0,0 l/m 0 min 0 min 0 W/m 8,4 km/h (2 Bft) 93,48 %
23.06.2017 22:06 22,1 C 21,1 C 18,9 C 61 % 0 lf 1014,9 hPa 0,0 l/m 0 min 0 min 0 W/m 14,6 km/h (3 Bft) 97,87 %
23.06.2017 22:08 22,0 C 20,6 C 18,9 C 61 % 0 lf 1014,9 hPa 0,0 l/m 0 min 0 min 0 W/m 14,6 km/h (3 Bft) 97,87 %
23.06.2017 22:10 21,9 C 21,1 C 19,4 C 61 % 0 lf 1015,0 hPa 0,0 l/m 0 min 0 min 0 W/m 20,9 km/h (4 Bft) 97,87 %
23.06.2017 22:12 21,9 C 20,6 C 18,9 C 62 % 0 lf 1014,9 hPa 0,0 l/m 0 min 0 min 0 W/m 16,7 km/h (3 Bft) 95,74 %
23.06.2017 22:14 21,8 C 20,6 C 19,4 C 62 % 0 lf 1015,0 hPa 0,0 l/m 0 min 0 min 0 W/m 14,6 km/h (3 Bft) 100,00 %
23.06.2017 22:16 21,8 C 21,1 C 19,4 C 62 % 0 lf 1015,0 hPa 0,0 l/m 0 min 0 min 0 W/m 20,9 km/h (4 Bft) 97,83 %
23.06.2017 22:18 21,7 C 21,1 C 19,4 C 62 % 0 lf 1015,0 hPa 0,0 l/m 0 min 0 min 0 W/m 18,8 km/h (3 Bft) 100,00 %
23.06.2017 22:20 21,6 C 21,1 C 19,4 C 62 % 0 lf 1015,0 hPa 0,0 l/m 0 min 0 min 0 W/m 12,6 km/h (3 Bft) 100,00 %
23.06.2017 22:22 21,6 C 20,6 C 19,4 C 62 % 0 lf 1015,0 hPa 0,0 l/m 0 min 0 min 0 W/m 18,8 km/h (3 Bft) 95,74 %
23.06.2017 22:24 21,5 C 20,6 C 18,9 C 62 % 0 lf 1015,1 hPa 0,0 l/m 0 min 0 min 0 W/m 14,6 km/h (3 Bft) 95,74 %
23.06.2017 22:26 21,4 C 20,6 C 18,9 C 62 % 0 lf 1015,1 hPa 0,0 l/m 0 min 0 min 0 W/m 14,6 km/h (3 Bft) 95,74 %
23.06.2017 22:28 21,4 C 20,6 C 18,9 C 62 % 0 lf 1015,1 hPa 0,0 l/m 0 min 0 min 0 W/m 14,6 km/h (3 Bft) 97,83 %
23.06.2017 22:30 21,4 C 20,6 C 18,9 C 62 % 0 lf 1015,1 hPa 0,0 l/m 0 min 0 min 0 W/m 12,6 km/h (3 Bft) 97,87 %
23.06.2017 22:32 21,3 C 20,6 C 18,9 C 62 % 0 lf 1015,2 hPa 0,0 l/m 0 min 0 min 0 W/m 16,7 km/h (3 Bft) 93,62 %
23.06.2017 22:34 21,3 C 20,6 C 18,9 C 62 % 0 lf 1015,2 hPa 0,0 l/m 0 min 0 min 0 W/m 16,7 km/h (3 Bft) 95,74 %
23.06.2017 22:36 21,2 C 20,6 C 18,9 C 62 % 0 lf 1015,3 hPa 0,0 l/m 0 min 0 min 0 W/m 14,6 km/h (3 Bft) 97,87 %
23.06.2017 22:38 21,2 C 20,6 C 18,9 C 63 % 0 lf 1015,3 hPa 0,0 l/m 0 min 0 min 0 W/m 14,6 km/h (3 Bft) 95,74 %
23.06.2017 22:40 21,2 C 20,0 C 18,9 C 63 % 0 lf 1015,3 hPa 0,0 l/m 0 min 0 min 0 W/m 10,5 km/h (2 Bft) 97,83 %
23.06.2017 22:42 21,1 C 20,0 C 18,3 C 63 % 0 lf 1015,4 hPa 0,0 l/m 0 min 0 min 0 W/m 14,6 km/h (3 Bft) 95,74 %
23.06.2017 22:44 21,1 C 20,0 C 18,3 C 63 % 0 lf 1015,3 hPa 0,0 l/m 0 min 0 min 0 W/m 12,6 km/h (3 Bft) 93,62 %
23.06.2017 22:46 21,0 C 20,0 C 18,3 C 63 % 0 lf 1015,3 hPa 0,0 l/m 0 min 0 min 0 W/m 20,9 km/h (4 Bft) 93,62 %
23.06.2017 22:48 21,0 C 20,0 C 18,9 C 63 % 0 lf 1015,3 hPa 0,0 l/m 0 min 0 min 0 W/m 16,7 km/h (3 Bft) 93,62 %
23.06.2017 22:50 20,9 C 20,0 C 18,3 C 63 % 0 lf 1015,3 hPa 0,0 l/m 0 min 0 min 0 W/m 8,4 km/h (2 Bft) 95,65 %
23.06.2017 22:52 20,9 C 20,0 C 18,3 C 63 % 0 lf 1015,5 hPa 0,0 l/m 0 min 0 min 0 W/m 10,5 km/h (2 Bft) 95,74 %
23.06.2017 22:54 20,9 C 20,0 C 18,3 C 63 % 0 lf 1015,5 hPa 0,0 l/m 0 min 0 min 0 W/m 12,6 km/h (3 Bft) 91,49 %
23.06.2017 22:56 20,8 C 20,0 C 18,3 C 63 % 0 lf 1015,5 hPa 0,0 l/m 0 min 0 min 0 W/m 12,6 km/h (3 Bft) 93,62 %
23.06.2017 22:58 20,8 C 20,0 C 18,3 C 63 % 0 lf 1015,5 hPa 0,0 l/m 0 min 0 min 0 W/m 10,5 km/h (2 Bft) 95,74 %
23.06.2017 23:00 20,8 C 20,0 C 17,8 C 63 % 0 lf 1015,5 hPa 0,0 l/m 0 min 0 min 0 W/m 10,5 km/h (2 Bft) 93,62 %
23.06.2017 23:02 20,7 C 20,0 C 18,3 C 64 % 0 lf 1015,5 hPa 0,0 l/m 0 min 0 min 0 W/m 12,6 km/h (3 Bft) 91,30 %
23.06.2017 23:04 20,7 C 19,4 C 17,8 C 64 % 0 lf 1015,4 hPa 0,0 l/m 0 min 0 min 0 W/m 10,5 km/h (2 Bft) 91,49 %
23.06.2017 23:06 20,6 C 19,4 C 17,8 C 64 % 0 lf 1015,5 hPa 0,0 l/m 0 min 0 min 0 W/m 12,6 km/h (3 Bft) 93,62 %
23.06.2017 23:08 20,6 C 19,4 C 17,8 C 64 % 0 lf 1015,5 hPa 0,0 l/m 0 min 0 min 0 W/m 12,6 km/h (3 Bft) 93,62 %
23.06.2017 23:10 20,5 C 19,4 C 17,8 C 64 % 0 lf 1015,5 hPa 0,0 l/m 0 min 0 min 0 W/m 14,6 km/h (3 Bft) 85,11 %
23.06.2017 23:12 20,4 C 19,4 C 17,8 C 65 % 0 lf 1015,5 hPa 0,0 l/m 0 min 0 min 0 W/m 14,6 km/h (3 Bft) 91,49 %
23.06.2017 23:14 20,4 C 19,4 C 17,8 C 65 % 0 lf 1015,6 hPa 0,0 l/m 0 min 0 min 0 W/m 14,6 km/h (3 Bft) 91,30 %
23.06.2017 23:16 20,3 C 19,4 C 17,8 C 65 % 0 lf 1015,6 hPa 0,0 l/m 0 min 0 min 0 W/m 12,6 km/h (3 Bft) 93,62 %
23.06.2017 23:18 20,3 C 19,4 C 17,8 C 65 % 0 lf 1015,6 hPa 0,0 l/m 0 min 0 min 0 W/m 16,7 km/h (3 Bft) 93,62 %
23.06.2017 23:20 20,2 C 19,4 C 17,8 C 65 % 0 lf 1015,7 hPa 0,0 l/m 0 min 0 min 0 W/m 23,0 km/h (4 Bft) 93,62 %
23.06.2017 23:22 20,2 C 19,4 C 17,8 C 66 % 0 lf 1015,7 hPa 0,0 l/m 0 min 0 min 0 W/m 14,6 km/h (3 Bft) 91,49 %
23.06.2017 23:24 20,2 C 19,4 C 17,8 C 66 % 0 lf 1015,7 hPa 0,0 l/m 0 min 0 min 0 W/m 20,9 km/h (4 Bft) 95,74 %
23.06.2017 23:26 20,1 C 19,4 C 17,8 C 66 % 0 lf 1015,7 hPa 0,0 l/m 0 min 0 min 0 W/m 18,8 km/h (3 Bft) 95,65 %
23.06.2017 23:28 20,1 C 19,4 C 17,8 C 66 % 0 lf 1015,7 hPa 0,0 l/m 0 min 0 min 0 W/m 18,8 km/h (3 Bft) 91,49 %
23.06.2017 23:30 20,0 C 19,4 C 17,8 C 67 % 0 lf 1015,7 hPa 0,0 l/m 0 min 0 min 0 W/m 18,8 km/h (3 Bft) 97,87 %
23.06.2017 23:32 20,0 C 19,4 C 17,8 C 67 % 0 lf 1015,7 hPa 0,0 l/m 0 min 0 min 0 W/m 14,6 km/h (3 Bft) 95,74 %
23.06.2017 23:34 19,9 C 19,4 C 17,8 C 67 % 0 lf 1015,7 hPa 0,0 l/m 0 min 0 min 0 W/m 20,9 km/h (4 Bft) 97,87 %
23.06.2017 23:36 19,9 C 19,4 C 17,8 C 67 % 0 lf 1015,7 hPa 0,0 l/m 0 min 0 min 0 W/m 14,6 km/h (3 Bft) 100,00 %
23.06.2017 23:38 19,9 C 18,9 C 17,8 C 68 % 0 lf 1015,8 hPa 0,0 l/m 0 min 0 min 0 W/m 12,6 km/h (3 Bft) 100,00 %
23.06.2017 23:40 19,8 C 18,9 C 17,8 C 68 % 0 lf 1015,7 hPa 0,0 l/m 0 min 0 min 0 W/m 14,6 km/h (3 Bft) 97,87 %
23.06.2017 23:42 19,8 C 18,9 C 17,2 C 68 % 0 lf 1015,8 hPa 0,0 l/m 0 min 0 min 0 W/m 12,6 km/h (3 Bft) 100,00 %
23.06.2017 23:44 19,8 C 18,9 C 17,2 C 68 % 0 lf 1015,8 hPa 0,0 l/m 0 min 0 min 0 W/m 12,6 km/h (3 Bft) 97,87 %
23.06.2017 23:46 19,7 C 18,9 C 17,2 C 68 % 0 lf 1015,8 hPa 0,0 l/m 0 min 0 min 0 W/m 18,8 km/h (3 Bft) 95,74 %
23.06.2017 23:48 19,7 C 18,9 C 17,2 C 69 % 0 lf 1015,8 hPa 0,0 l/m 0 min 0 min 0 W/m 16,7 km/h (3 Bft) 100,00 %
23.06.2017 23:50 19,6 C 18,9 C 17,2 C 69 % 0 lf 1015,8 hPa 0,0 l/m 0 min 0 min 0 W/m 8,4 km/h (2 Bft) 100,00 %
23.06.2017 23:52 19,6 C 18,9 C 17,2 C 69 % 0 lf 1015,8 hPa 0,0 l/m 0 min 0 min 0 W/m 14,6 km/h (3 Bft) 100,00 %
23.06.2017 23:54 19,6 C 18,9 C 17,2 C 69 % 0 lf 1015,8 hPa 0,0 l/m 0 min 0 min 0 W/m 10,5 km/h (2 Bft) 97,87 %
23.06.2017 23:56 19,5 C 18,3 C 17,2 C 69 % 0 lf 1015,8 hPa 0,0 l/m 0 min 0 min 0 W/m 20,9 km/h (4 Bft) 100,00 %
23.06.2017 23:58 19,4 C 18,9 C 17,2 C 69 % 0 lf 1015,8 hPa 0,0 l/m 0 min 0 min 0 W/m 18,8 km/h (3 Bft) 100,00 %
_ Min-Zeit 06:54 23:56 23:42 16:54 00:00 00:00 - - - - 04:20 23:10
Minimum _ 19,0 C 18,3 C 17,2 C 51 % 0 lf 1011,6 hPa - - - - 4,2 km/h (1 Bft) 85,11 %
_ Max-Zeit 16:38 13:32 16:26 04:10 00:00 23:38 00:00 07:18 00:00 13:52 14:20 00:00
Maximum _ 27,5 C 33,3 C 37,8 C 82 % 0 lf 1015,8 hPa 0,0 l/m 2 min 0 min 1190 W/m 35,6 km/h
W-SW (5 Bft)
100,00 %
Durchschnitt _ 22,4 C 23,4 C 23,0 C 69 % 0 lf 1013,8 hPa #0,0 l/m #10:10 h #0 min. 357 W/m 17,8 km/h (3 Bft) 96,53 %
© 2017 W. Hausmann